Time,TemperatureF,DewpointF,PressureIn,WindDirection,WindDirectionDegrees,WindSpeedMPH,WindSpeedGustMPH,Humidity,HourlyPrecipIn,Conditions,Clouds,dailyrainin,SoftwareType,DateUTC
2013-06-28 00:01:00,73.3,65.7,29.79,SE,135,0.0,0.0,77,0.00,,---,0.00,VWS V14.01,2013-06-28 04:01:00,
2013-06-28 00:06:00,73.3,65.7,29.79,SE,135,0.0,0.0,77,0.00,,---,0.00,VWS V14.01,2013-06-28 04:06:00,
2013-06-28 00:07:00,73.3,65.7,29.79,SE,135,0.0,0.0,77,0.00,,---,0.00,VWS V14.01,2013-06-28 04:07:00,
2013-06-28 00:11:00,73.2,65.6,29.79,SE,135,0.0,0.0,77,0.00,,---,0.00,VWS V14.01,2013-06-28 04:11:00,
2013-06-28 00:12:00,73.3,65.7,29.78,SE,135,0.0,0.0,77,0.00,,---,0.00,VWS V14.01,2013-06-28 04:12:00,
2013-06-28 00:16:00,73.3,65.7,29.78,SE,135,0.0,0.0,77,0.00,,---,0.00,VWS V14.01,2013-06-28 04:16:00,
2013-06-28 00:17:00,73.2,65.6,29.78,SE,135,0.0,0.0,77,0.00,,---,0.00,VWS V14.01,2013-06-28 04:17:00,
2013-06-28 00:18:00,73.2,65.6,29.78,SE,135,0.0,0.0,77,0.00,,---,0.00,VWS V14.01,2013-06-28 04:18:00,
2013-06-28 00:21:00,72.8,65.2,29.78,SE,135,0.0,0.0,77,0.00,,---,0.00,VWS V14.01,2013-06-28 04:21:00,
2013-06-28 00:22:00,72.8,65.2,29.78,SE,135,0.0,0.0,77,0.00,,---,0.00,VWS V14.01,2013-06-28 04:22:00,
2013-06-28 00:24:00,72.8,65.2,29.78,SE,135,0.0,0.0,77,0.00,,---,0.00,VWS V14.01,2013-06-28 04:24:00,
2013-06-28 00:27:00,73.0,65.4,29.78,SE,135,0.0,0.0,77,0.00,,---,0.00,VWS V14.01,2013-06-28 04:27:00,
2013-06-28 00:28:00,72.8,65.2,29.78,SE,135,0.0,0.0,77,0.00,,---,0.00,VWS V14.01,2013-06-28 04:28:00,
2013-06-28 00:29:00,72.8,65.2,29.78,SE,135,0.0,0.0,77,0.00,,---,0.00,VWS V14.01,2013-06-28 04:29:00,
2013-06-28 00:32:00,72.8,65.2,29.78,SE,135,0.0,0.0,77,0.00,,---,0.00,VWS V14.01,2013-06-28 04:32:00,
2013-06-28 00:33:00,72.8,65.2,29.78,SE,135,0.0,0.0,77,0.00,,---,0.00,VWS V14.01,2013-06-28 04:33:00,
2013-06-28 00:34:00,72.8,65.2,29.78,SE,135,0.0,0.0,77,0.00,,---,0.00,VWS V14.01,2013-06-28 04:34:00,
2013-06-28 00:37:00,72.8,65.6,29.78,SE,135,0.0,0.0,78,0.00,,---,0.00,VWS V14.01,2013-06-28 04:37:00,
2013-06-28 00:38:00,72.8,65.6,29.78,SE,135,0.0,0.0,78,0.00,,---,0.00,VWS V14.01,2013-06-28 04:38:00,
2013-06-28 00:39:00,72.8,65.6,29.78,SE,135,0.0,0.0,78,0.00,,---,0.00,VWS V14.01,2013-06-28 04:39:00,
2013-06-28 00:43:00,72.8,65.6,29.78,SE,135,0.0,0.0,78,0.00,,---,0.00,VWS V14.01,2013-06-28 04:43:00,
2013-06-28 00:44:00,72.8,65.6,29.78,SE,135,0.0,0.0,78,0.00,,---,0.00,VWS V14.01,2013-06-28 04:44:00,
2013-06-28 00:48:00,72.8,65.6,29.77,SE,135,0.0,0.0,78,0.00,,---,0.00,VWS V14.01,2013-06-28 04:48:00,
2013-06-28 00:49:00,72.6,65.3,29.77,SE,135,0.0,0.0,78,0.00,,---,0.00,VWS V14.01,2013-06-28 04:49:00,
2013-06-28 00:50:00,72.6,65.3,29.77,SE,135,0.0,0.0,78,0.00,,---,0.00,VWS V14.01,2013-06-28 04:50:00,
2013-06-28 00:53:00,72.6,65.3,29.77,SE,135,0.0,0.0,78,0.00,,---,0.00,VWS V14.01,2013-06-28 04:53:00,
2013-06-28 00:54:00,72.6,65.3,29.77,SE,135,0.0,0.0,78,0.00,,---,0.00,VWS V14.01,2013-06-28 04:54:00,
2013-06-28 00:55:00,72.6,65.3,29.77,SE,135,0.0,0.0,78,0.00,,---,0.00,VWS V14.01,2013-06-28 04:55:00,
2013-06-28 00:58:00,72.4,65.2,29.77,SE,135,0.0,0.0,78,0.00,,---,0.00,VWS V14.01,2013-06-28 04:58:00,
2013-06-28 00:59:00,72.4,65.2,29.77,SE,135,0.0,0.0,78,0.00,,---,0.00,VWS V14.01,2013-06-28 04:59:00,
2013-06-28 01:00:00,72.4,65.2,29.77,SE,135,0.0,0.0,78,0.00,,---,0.00,VWS V14.01,2013-06-28 05:00:00,
2013-06-28 01:03:00,72.4,65.2,29.77,SE,135,0.0,0.0,78,0.00,,---,0.00,VWS V14.01,2013-06-28 05:03:00,
2013-06-28 01:04:00,72.4,65.2,29.77,SE,135,0.0,0.0,78,0.00,,---,0.00,VWS V14.01,2013-06-28 05:04:00,
2013-06-28 01:05:00,72.4,65.2,29.77,SE,135,0.0,0.0,78,0.00,,---,0.00,VWS V14.01,2013-06-28 05:05:00,
2013-06-28 01:08:00,72.4,65.2,29.77,SE,135,0.0,0.0,78,0.00,,---,0.00,VWS V14.01,2013-06-28 05:08:00,
2013-06-28 01:10:00,72.4,65.2,29.77,SE,135,0.0,0.0,78,0.00,,---,0.00,VWS V14.01,2013-06-28 05:10:00,
2013-06-28 01:14:00,72.4,65.2,29.77,SE,135,0.0,0.0,78,0.00,,---,0.00,VWS V14.01,2013-06-28 05:14:00,
2013-06-28 01:15:00,72.4,65.2,29.76,SE,135,0.0,0.0,78,0.00,,---,0.00,VWS V14.01,2013-06-28 05:15:00,
2013-06-28 01:16:00,72.4,65.2,29.76,SE,135,0.0,0.0,78,0.00,,---,0.00,VWS V14.01,2013-06-28 05:16:00,
2013-06-28 01:17:00,72.3,65.1,29.77,SE,135,0.0,0.0,78,0.00,,---,0.00,VWS V14.01,2013-06-28 05:17:00,
2013-06-28 01:19:00,72.3,65.4,29.76,SE,135,0.0,0.0,79,0.00,,---,0.00,VWS V14.01,2013-06-28 05:19:00,
2013-06-28 01:20:00,71.9,64.7,29.76,SE,135,0.0,0.0,78,0.00,,---,0.00,VWS V14.01,2013-06-28 05:20:00,
2013-06-28 01:21:00,71.9,64.7,29.76,SE,135,0.0,0.0,78,0.00,,---,0.00,VWS V14.01,2013-06-28 05:21:00,
2013-06-28 01:22:00,71.9,64.7,29.76,SE,135,0.0,0.0,78,0.00,,---,0.00,VWS V14.01,2013-06-28 05:22:00,
2013-06-28 01:24:00,71.9,65.0,29.76,SE,135,0.0,0.0,79,0.00,,---,0.00,VWS V14.01,2013-06-28 05:24:00,
2013-06-28 01:25:00,72.3,65.8,29.76,SE,135,0.0,0.0,80,0.00,,---,0.00,VWS V14.01,2013-06-28 05:25:00,
2013-06-28 01:26:00,72.3,65.8,29.76,SE,135,0.0,0.0,80,0.00,,---,0.00,VWS V14.01,2013-06-28 05:26:00,
2013-06-28 01:27:00,72.3,65.4,29.76,SE,135,0.0,0.0,79,0.00,,---,0.00,VWS V14.01,2013-06-28 05:27:00,
2013-06-28 01:30:00,72.3,65.4,29.76,SE,135,0.0,0.0,79,0.00,,---,0.00,VWS V14.01,2013-06-28 05:30:00,
2013-06-28 01:31:00,72.1,65.2,29.75,SE,135,0.0,0.0,79,0.00,,---,0.00,VWS V14.01,2013-06-28 05:31:00,
2013-06-28 01:32:00,72.1,65.2,29.76,SE,135,0.0,0.0,79,0.00,,---,0.00,VWS V14.01,2013-06-28 05:32:00,
2013-06-28 01:33:00,72.3,65.8,29.76,SE,135,0.0,0.0,80,0.00,,---,0.00,VWS V14.01,2013-06-28 05:33:00,
2013-06-28 01:35:00,72.3,65.4,29.76,SE,135,0.0,0.0,79,0.00,,---,0.00,VWS V14.01,2013-06-28 05:35:00,
2013-06-28 01:36:00,72.3,65.4,29.76,SE,135,0.0,0.0,79,0.00,,---,0.00,VWS V14.01,2013-06-28 05:36:00,
2013-06-28 01:38:00,72.3,65.4,29.76,SE,135,0.0,0.0,79,0.00,,---,0.00,VWS V14.01,2013-06-28 05:38:00,
2013-06-28 01:41:00,72.1,65.6,29.76,SE,135,0.0,0.0,80,0.00,,---,0.00,VWS V14.01,2013-06-28 05:41:00,
2013-06-28 01:42:00,72.1,65.6,29.75,SE,135,0.0,0.0,80,0.00,,---,0.00,VWS V14.01,2013-06-28 05:42:00,
2013-06-28 01:43:00,72.1,65.6,29.75,SE,135,0.0,0.0,80,0.00,,---,0.00,VWS V14.01,2013-06-28 05:43:00,
2013-06-28 01:44:00,72.1,65.6,29.75,SE,135,0.0,0.0,80,0.00,,---,0.00,VWS V14.01,2013-06-28 05:44:00,
2013-06-28 01:46:00,72.1,65.6,29.75,SE,135,0.0,0.0,80,0.00,,---,0.00,VWS V14.01,2013-06-28 05:46:00,
2013-06-28 01:47:00,72.1,65.6,29.75,SE,135,0.0,0.0,80,0.00,,---,0.00,VWS V14.01,2013-06-28 05:47:00,
2013-06-28 01:49:00,71.9,65.4,29.75,SE,135,0.0,0.0,80,0.00,,---,0.00,VWS V14.01,2013-06-28 05:49:00,
2013-06-28 01:50:00,71.9,65.4,29.75,SE,135,0.0,0.0,80,0.00,,---,0.00,VWS V14.01,2013-06-28 05:50:00,
2013-06-28 01:51:00,71.7,65.2,29.75,SE,135,0.0,0.0,80,0.00,,---,0.00,VWS V14.01,2013-06-28 05:51:00,
2013-06-28 01:52:00,72.1,65.6,29.75,SE,135,0.0,0.0,80,0.00,,---,0.00,VWS V14.01,2013-06-28 05:52:00,
2013-06-28 01:54:00,72.1,65.9,29.75,SE,135,0.0,0.0,81,0.00,,---,0.00,VWS V14.01,2013-06-28 05:54:00,
2013-06-28 01:55:00,72.1,65.9,29.75,SE,135,0.0,0.0,81,0.00,,---,0.00,VWS V14.01,2013-06-28 05:55:00,
2013-06-28 01:56:00,72.1,65.9,29.75,SE,135,0.0,0.0,81,0.00,,---,0.00,VWS V14.01,2013-06-28 05:56:00,
2013-06-28 01:57:00,71.9,65.8,29.75,SE,135,0.0,0.0,81,0.00,,---,0.00,VWS V14.01,2013-06-28 05:57:00,
2013-06-28 01:59:00,72.1,65.9,29.75,SE,135,0.0,0.0,81,0.00,,---,0.00,VWS V14.01,2013-06-28 05:59:00,
2013-06-28 02:00:00,72.1,65.9,29.75,SE,135,0.0,0.0,81,0.00,,---,0.00,VWS V14.01,2013-06-28 06:00:00,
2013-06-28 02:02:00,72.1,65.9,29.75,SE,135,0.0,0.0,81,0.00,,---,0.00,VWS V14.01,2013-06-28 06:02:00,
2013-06-28 02:04:00,72.1,65.9,29.75,SE,135,0.0,0.0,81,0.00,,---,0.00,VWS V14.01,2013-06-28 06:04:00,
2013-06-28 02:05:00,72.1,65.9,29.75,SE,135,0.0,0.0,81,0.00,,---,0.00,VWS V14.01,2013-06-28 06:05:00,
2013-06-28 02:07:00,72.1,65.9,29.75,SE,135,0.0,0.0,81,0.00,,---,0.00,VWS V14.01,2013-06-28 06:07:00,
2013-06-28 02:08:00,72.1,65.9,29.75,SE,135,0.0,0.0,81,0.00,,---,0.00,VWS V14.01,2013-06-28 06:08:00,
2013-06-28 02:09:00,72.1,65.9,29.75,SE,135,0.0,0.0,81,0.00,,---,0.00,VWS V14.01,2013-06-28 06:09:00,
2013-06-28 02:10:00,72.1,65.9,29.75,SE,135,0.0,0.0,81,0.00,,---,0.00,VWS V14.01,2013-06-28 06:10:00,
2013-06-28 02:12:00,71.7,65.6,29.75,SE,135,0.0,0.0,81,0.00,,---,0.00,VWS V14.01,2013-06-28 06:12:00,
2013-06-28 02:13:00,71.7,65.6,29.75,SE,135,0.0,0.0,81,0.00,,---,0.00,VWS V14.01,2013-06-28 06:13:00,
2013-06-28 02:14:00,71.7,65.6,29.75,SE,135,0.0,0.0,81,0.00,,---,0.00,VWS V14.01,2013-06-28 06:14:00,
2013-06-28 02:16:00,71.7,65.6,29.75,SE,135,0.0,0.0,81,0.00,,---,0.00,VWS V14.01,2013-06-28 06:16:00,
2013-06-28 02:18:00,71.7,65.6,29.75,SE,135,0.0,0.0,81,0.00,,---,0.00,VWS V14.01,2013-06-28 06:18:00,
2013-06-28 02:19:00,71.5,65.4,29.75,SE,135,0.0,0.0,81,0.00,,---,0.00,VWS V14.01,2013-06-28 06:19:00,
2013-06-28 02:21:00,71.4,65.3,29.75,SE,135,0.0,0.0,81,0.00,,---,0.00,VWS V14.01,2013-06-28 06:21:00,
2013-06-28 02:23:00,71.7,65.6,29.75,SE,135,0.0,0.0,81,0.00,,---,0.00,VWS V14.01,2013-06-28 06:23:00,
2013-06-28 02:24:00,71.7,65.6,29.75,SE,135,0.0,0.0,81,0.00,,---,0.00,VWS V14.01,2013-06-28 06:24:00,
2013-06-28 02:25:00,71.4,65.3,29.75,SE,135,0.0,0.0,81,0.00,,---,0.00,VWS V14.01,2013-06-28 06:25:00,
2013-06-28 02:27:00,71.4,65.3,29.75,SE,135,0.0,0.0,81,0.00,,---,0.00,VWS V14.01,2013-06-28 06:27:00,
2013-06-28 02:28:00,71.5,65.4,29.75,SE,135,0.0,0.0,81,0.00,,---,0.00,VWS V14.01,2013-06-28 06:28:00,
2013-06-28 02:29:00,71.5,65.4,29.75,SE,135,0.0,0.0,81,0.00,,---,0.00,VWS V14.01,2013-06-28 06:29:00,
2013-06-28 02:30:00,71.5,65.4,29.75,SE,135,0.0,0.0,81,0.00,,---,0.00,VWS V14.01,2013-06-28 06:30:00,
2013-06-28 02:32:00,71.7,65.6,29.75,SE,135,0.0,0.0,81,0.00,,---,0.00,VWS V14.01,2013-06-28 06:32:00,
2013-06-28 02:34:00,71.5,65.4,29.75,SE,135,0.0,0.0,81,0.00,,---,0.00,VWS V14.01,2013-06-28 06:34:00,
2013-06-28 02:35:00,71.5,65.4,29.75,SE,135,0.0,0.0,81,0.00,,---,0.00,VWS V14.01,2013-06-28 06:35:00,
2013-06-28 02:37:00,71.5,65.4,29.75,SE,135,0.0,0.0,81,0.00,,---,0.00,VWS V14.01,2013-06-28 06:37:00,
2013-06-28 02:39:00,71.5,65.4,29.75,SE,135,0.0,0.0,81,0.00,,---,0.00,VWS V14.01,2013-06-28 06:39:00,
2013-06-28 02:40:00,71.5,65.4,29.75,SE,135,0.0,0.0,81,0.00,,---,0.00,VWS V14.01,2013-06-28 06:40:00,
2013-06-28 02:42:00,71.5,65.7,29.75,SE,135,0.0,0.0,82,0.00,,---,0.00,VWS V14.01,2013-06-28 06:42:00,
2013-06-28 02:44:00,71.5,65.7,29.75,SE,135,0.0,0.0,82,0.00,,---,0.00,VWS V14.01,2013-06-28 06:44:00,
2013-06-28 02:45:00,71.5,65.7,29.75,SE,135,0.0,0.0,82,0.00,,---,0.00,VWS V14.01,2013-06-28 06:45:00,
2013-06-28 02:46:00,71.5,65.7,29.75,SE,135,0.0,0.0,82,0.00,,---,0.00,VWS V14.01,2013-06-28 06:46:00,
2013-06-28 02:47:00,71.2,65.4,29.75,SE,135,0.0,0.0,82,0.00,,---,0.00,VWS V14.01,2013-06-28 06:47:00,
2013-06-28 02:50:00,71.0,65.2,29.75,SE,135,0.0,0.0,82,0.00,,---,0.00,VWS V14.01,2013-06-28 06:50:00,
2013-06-28 02:51:00,71.0,65.2,29.75,SE,135,0.0,0.0,82,0.00,,---,0.00,VWS V14.01,2013-06-28 06:51:00,
2013-06-28 02:52:00,71.5,65.7,29.75,SE,135,0.0,0.0,82,0.00,,---,0.00,VWS V14.01,2013-06-28 06:52:00,
2013-06-28 02:56:00,71.0,65.2,29.75,SE,135,0.0,0.0,82,0.00,,---,0.00,VWS V14.01,2013-06-28 06:56:00,
2013-06-28 02:58:00,71.4,65.6,29.75,SE,135,0.0,0.0,82,0.00,,---,0.00,VWS V14.01,2013-06-28 06:58:00,
2013-06-28 03:01:00,71.4,65.6,29.75,SE,135,0.0,0.0,82,0.00,,---,0.00,VWS V14.01,2013-06-28 07:01:00,
2013-06-28 03:02:00,71.4,65.6,29.75,SE,135,0.0,0.0,82,0.00,,---,0.00,VWS V14.01,2013-06-28 07:02:00,
2013-06-28 03:03:00,71.4,65.6,29.75,SE,135,0.0,0.0,82,0.00,,---,0.00,VWS V14.01,2013-06-28 07:03:00,
2013-06-28 03:06:00,71.4,65.6,29.75,SE,135,0.0,0.0,82,0.00,,---,0.00,VWS V14.01,2013-06-28 07:06:00,
2013-06-28 03:07:00,71.4,65.6,29.75,SE,135,0.0,0.0,82,0.00,,---,0.00,VWS V14.01,2013-06-28 07:07:00,
2013-06-28 03:08:00,71.4,65.6,29.75,SE,135,0.0,0.0,82,0.00,,---,0.00,VWS V14.01,2013-06-28 07:08:00,
2013-06-28 03:11:00,71.2,65.8,29.75,SE,135,0.0,0.0,83,0.00,,---,0.00,VWS V14.01,2013-06-28 07:11:00,
2013-06-28 03:12:00,71.2,65.8,29.75,SE,135,0.0,0.0,83,0.00,,---,0.00,VWS V14.01,2013-06-28 07:12:00,
2013-06-28 03:13:00,71.0,65.6,29.75,SE,135,0.0,0.0,83,0.00,,---,0.00,VWS V14.01,2013-06-28 07:13:00,
2013-06-28 03:14:00,71.0,65.6,29.75,SE,135,0.0,0.0,83,0.00,,---,0.00,VWS V14.01,2013-06-28 07:14:00,
2013-06-28 03:16:00,71.2,65.8,29.75,SE,135,0.0,0.0,83,0.00,,---,0.00,VWS V14.01,2013-06-28 07:16:00,
2013-06-28 03:19:00,71.2,65.8,29.75,SE,135,0.0,0.0,83,0.00,,---,0.00,VWS V14.01,2013-06-28 07:19:00,
2013-06-28 03:21:00,71.0,65.6,29.75,SE,135,0.0,0.0,83,0.00,,---,0.00,VWS V14.01,2013-06-28 07:21:00,
2013-06-28 03:24:00,71.0,65.6,29.75,SE,135,0.0,0.0,83,0.00,,---,0.00,VWS V14.01,2013-06-28 07:24:00,
2013-06-28 03:26:00,71.2,65.8,29.75,SE,135,0.0,0.0,83,0.00,,---,0.00,VWS V14.01,2013-06-28 07:26:00,
2013-06-28 03:29:00,71.2,65.8,29.75,SE,135,0.0,0.0,83,0.00,,---,0.00,VWS V14.01,2013-06-28 07:29:00,
2013-06-28 03:31:00,70.8,65.4,29.75,SE,135,0.0,0.0,83,0.00,,---,0.00,VWS V14.01,2013-06-28 07:31:00,
2013-06-28 03:34:00,70.8,65.4,29.75,SE,135,0.0,0.0,83,0.00,,---,0.00,VWS V14.01,2013-06-28 07:34:00,
2013-06-28 03:35:00,71.0,65.6,29.75,SE,135,0.0,0.0,83,0.00,,---,0.00,VWS V14.01,2013-06-28 07:35:00,
2013-06-28 03:36:00,71.0,65.6,29.76,SE,135,0.0,0.0,83,0.00,,---,0.00,VWS V14.01,2013-06-28 07:36:00,
2013-06-28 03:37:00,71.0,65.6,29.76,SE,135,0.0,0.0,83,0.00,,---,0.00,VWS V14.01,2013-06-28 07:37:00,
2013-06-28 03:40:00,70.8,65.4,29.75,WSW,248,0.0,0.0,83,0.00,,---,0.00,VWS V14.01,2013-06-28 07:40:00,
2013-06-28 03:41:00,71.0,65.9,29.76,WSW,248,0.0,0.0,84,0.00,,---,0.00,VWS V14.01,2013-06-28 07:41:00,
2013-06-28 03:42:00,71.0,65.9,29.76,WSW,248,0.0,0.0,84,0.00,,---,0.00,VWS V14.01,2013-06-28 07:42:00,
2013-06-28 03:45:00,70.8,65.7,29.76,WSW,248,0.0,0.0,84,0.00,,---,0.00,VWS V14.01,2013-06-28 07:45:00,
2013-06-28 03:46:00,70.8,65.7,29.76,WSW,248,0.0,0.0,84,0.00,,---,0.00,VWS V14.01,2013-06-28 07:46:00,
2013-06-28 03:47:00,71.0,65.9,29.76,WSW,248,0.0,0.0,84,0.00,,---,0.00,VWS V14.01,2013-06-28 07:47:00,
2013-06-28 03:50:00,70.8,65.7,29.75,WSW,248,0.0,0.0,84,0.00,,---,0.00,VWS V14.01,2013-06-28 07:50:00,
2013-06-28 03:51:00,70.8,65.7,29.75,WSW,248,0.0,0.0,84,0.00,,---,0.00,VWS V14.01,2013-06-28 07:51:00,
2013-06-28 03:52:00,71.0,66.3,29.76,WSW,248,0.0,0.0,85,0.00,,---,0.00,VWS V14.01,2013-06-28 07:52:00,
2013-06-28 03:53:00,71.0,66.3,29.76,WSW,248,0.0,0.0,85,0.00,,---,0.00,VWS V14.01,2013-06-28 07:53:00,
2013-06-28 03:55:00,71.0,66.3,29.75,West,270,0.0,0.0,85,0.00,,---,0.00,VWS V14.01,2013-06-28 07:55:00,
2013-06-28 03:57:00,71.0,66.3,29.75,West,270,0.0,0.0,85,0.00,,---,0.00,VWS V14.01,2013-06-28 07:57:00,
2013-06-28 03:58:00,71.0,66.3,29.75,West,270,0.0,0.0,85,0.00,,---,0.00,VWS V14.01,2013-06-28 07:58:00,
2013-06-28 04:00:00,71.0,66.3,29.76,WSW,248,0.0,0.0,85,0.00,,---,0.00,VWS V14.01,2013-06-28 08:00:00,
2013-06-28 04:01:00,71.0,66.3,29.75,WSW,248,0.0,0.0,85,0.00,,---,0.00,VWS V14.01,2013-06-28 08:01:00,
2013-06-28 04:02:00,71.0,66.3,29.75,WSW,248,0.0,0.0,85,0.00,,---,0.00,VWS V14.01,2013-06-28 08:02:00,
2013-06-28 04:03:00,71.0,66.3,29.76,WSW,248,0.0,0.0,85,0.00,,---,0.00,VWS V14.01,2013-06-28 08:03:00,
2013-06-28 04:04:00,71.0,66.3,29.76,WSW,248,0.0,0.0,85,0.00,,---,0.00,VWS V14.01,2013-06-28 08:04:00,
2013-06-28 04:05:00,70.8,66.1,29.75,WSW,248,0.0,0.0,85,0.00,,---,0.00,VWS V14.01,2013-06-28 08:05:00,
2013-06-28 04:06:00,70.8,66.1,29.75,WSW,248,0.0,0.0,85,0.00,,---,0.00,VWS V14.01,2013-06-28 08:06:00,
2013-06-28 04:08:00,70.8,66.1,29.75,WSW,248,0.0,0.0,85,0.00,,---,0.00,VWS V14.01,2013-06-28 08:08:00,
2013-06-28 04:09:00,70.8,66.1,29.75,WSW,248,0.0,0.0,85,0.00,,---,0.00,VWS V14.01,2013-06-28 08:09:00,
2013-06-28 04:10:00,70.8,66.1,29.75,WSW,248,0.0,0.0,85,0.00,,---,0.00,VWS V14.01,2013-06-28 08:10:00,
2013-06-28 04:12:00,71.0,66.6,29.75,WSW,248,0.0,0.0,86,0.00,,---,0.00,VWS V14.01,2013-06-28 08:12:00,
2013-06-28 04:14:00,70.8,66.4,29.75,WSW,248,0.0,0.0,86,0.00,,---,0.00,VWS V14.01,2013-06-28 08:14:00,
2013-06-28 04:16:00,71.0,66.6,29.75,WSW,248,0.0,0.0,86,0.00,,---,0.00,VWS V14.01,2013-06-28 08:16:00,
2013-06-28 04:17:00,70.8,66.4,29.75,WSW,248,0.0,0.0,86,0.00,,---,0.00,VWS V14.01,2013-06-28 08:17:00,
2013-06-28 04:19:00,70.8,66.4,29.75,WSW,248,0.0,0.0,86,0.00,,---,0.00,VWS V14.01,2013-06-28 08:19:00,
2013-06-28 04:21:00,70.8,66.1,29.75,WSW,248,0.0,0.0,85,0.00,,---,0.00,VWS V14.01,2013-06-28 08:21:00,
2013-06-28 04:22:00,71.0,66.6,29.75,WSW,248,0.0,0.0,86,0.00,,---,0.00,VWS V14.01,2013-06-28 08:22:00,
2013-06-28 04:24:00,70.6,65.9,29.75,WSW,248,0.0,0.0,85,0.00,,---,0.00,VWS V14.01,2013-06-28 08:24:00,
2013-06-28 04:25:00,70.6,65.9,29.75,WSW,248,0.0,0.0,85,0.00,,---,0.00,VWS V14.01,2013-06-28 08:25:00,
2013-06-28 04:26:00,70.6,65.9,29.75,WSW,248,0.0,0.0,85,0.00,,---,0.00,VWS V14.01,2013-06-28 08:26:00,
2013-06-28 04:27:00,70.6,65.9,29.75,WSW,248,0.0,0.0,85,0.00,,---,0.00,VWS V14.01,2013-06-28 08:27:00,
2013-06-28 04:29:00,70.6,65.9,29.74,WSW,248,0.0,0.0,85,0.00,,---,0.00,VWS V14.01,2013-06-28 08:29:00,
2013-06-28 04:30:00,70.6,65.9,29.74,WSW,248,0.0,0.0,85,0.00,,---,0.00,VWS V14.01,2013-06-28 08:30:00,
2013-06-28 04:31:00,70.6,65.9,29.74,WSW,248,0.0,0.0,85,0.00,,---,0.00,VWS V14.01,2013-06-28 08:31:00,
2013-06-28 04:32:00,70.8,66.1,29.75,WSW,248,0.0,0.0,85,0.00,,---,0.00,VWS V14.01,2013-06-28 08:32:00,
2013-06-28 04:34:00,70.8,66.1,29.75,WSW,248,0.0,0.0,85,0.00,,---,0.00,VWS V14.01,2013-06-28 08:34:00,
2013-06-28 04:35:00,70.6,65.9,29.75,WSW,248,0.0,0.0,85,0.00,,---,0.00,VWS V14.01,2013-06-28 08:35:00,
2013-06-28 04:36:00,70.6,65.9,29.75,WSW,248,0.0,0.0,85,0.00,,---,0.00,VWS V14.01,2013-06-28 08:36:00,
2013-06-28 04:38:00,70.8,66.4,29.75,WSW,248,0.0,0.0,86,0.00,,---,0.00,VWS V14.01,2013-06-28 08:38:00,
2013-06-28 04:40:00,70.6,66.2,29.75,WSW,248,0.0,0.0,86,0.00,,---,0.00,VWS V14.01,2013-06-28 08:40:00,
2013-06-28 04:41:00,70.6,66.2,29.75,WSW,248,0.0,0.0,86,0.00,,---,0.00,VWS V14.01,2013-06-28 08:41:00,
2013-06-28 04:42:00,70.6,66.2,29.75,WSW,248,0.0,0.0,86,0.00,,---,0.00,VWS V14.01,2013-06-28 08:42:00,
2013-06-28 04:43:00,70.6,66.2,29.75,WSW,248,0.0,0.0,86,0.00,,---,0.00,VWS V14.01,2013-06-28 08:43:00,
2013-06-28 04:45:00,70.8,66.4,29.75,WSW,248,0.0,0.0,86,0.00,,---,0.00,VWS V14.01,2013-06-28 08:45:00,
2013-06-28 04:46:00,70.8,66.4,29.75,WSW,248,0.0,0.0,86,0.00,,---,0.00,VWS V14.01,2013-06-28 08:46:00,
2013-06-28 04:47:00,70.8,66.4,29.75,WSW,248,0.0,0.0,86,0.00,,---,0.00,VWS V14.01,2013-06-28 08:47:00,
2013-06-28 04:48:00,70.8,66.4,29.75,WSW,248,0.0,0.0,86,0.00,,---,0.00,VWS V14.01,2013-06-28 08:48:00,
2013-06-28 04:50:00,70.8,66.4,29.75,WSW,248,0.0,0.0,86,0.00,,---,0.00,VWS V14.01,2013-06-28 08:50:00,
2013-06-28 04:51:00,70.8,66.4,29.75,WSW,248,0.0,0.0,86,0.00,,---,0.00,VWS V14.01,2013-06-28 08:51:00,
2013-06-28 04:52:00,70.8,66.4,29.75,SW,225,0.0,0.0,86,0.00,,---,0.00,VWS V14.01,2013-06-28 08:52:00,
2013-06-28 04:53:00,70.8,66.4,29.75,SW,225,0.0,0.0,86,0.00,,---,0.00,VWS V14.01,2013-06-28 08:53:00,
2013-06-28 04:56:00,70.8,66.4,29.75,SW,225,0.0,0.0,86,0.00,,---,0.00,VWS V14.01,2013-06-28 08:56:00,
2013-06-28 04:58:00,70.8,66.4,29.75,SW,225,0.0,0.0,86,0.00,,---,0.00,VWS V14.01,2013-06-28 08:58:00,
2013-06-28 05:01:00,71.0,66.9,29.75,SSW,202,2.0,2.0,87,0.00,,---,0.00,VWS V14.01,2013-06-28 09:01:00,
2013-06-28 05:02:00,71.0,66.9,29.75,SSW,202,2.0,2.0,87,0.00,,---,0.00,VWS V14.01,2013-06-28 09:02:00,
2013-06-28 05:03:00,70.8,66.4,29.75,SSW,202,0.0,0.0,86,0.00,,---,0.00,VWS V14.01,2013-06-28 09:03:00,
2013-06-28 05:04:00,70.8,66.4,29.75,SSW,202,0.0,0.0,86,0.00,,---,0.00,VWS V14.01,2013-06-28 09:04:00,
2013-06-28 05:06:00,71.0,66.9,29.75,SSW,202,0.0,0.0,87,0.00,,---,0.00,VWS V14.01,2013-06-28 09:06:00,
2013-06-28 05:07:00,71.0,66.9,29.75,SSW,202,0.0,0.0,87,0.00,,---,0.00,VWS V14.01,2013-06-28 09:07:00,
2013-06-28 05:08:00,71.0,66.9,29.75,SSW,202,0.0,0.0,87,0.00,,---,0.00,VWS V14.01,2013-06-28 09:08:00,
2013-06-28 05:09:00,71.0,66.9,29.75,SSW,202,0.0,0.0,87,0.00,,---,0.00,VWS V14.01,2013-06-28 09:09:00,
2013-06-28 05:12:00,71.0,66.9,29.75,SSW,202,0.0,0.0,87,0.00,,---,0.00,VWS V14.01,2013-06-28 09:12:00,
2013-06-28 05:14:00,71.2,67.1,29.75,SSW,202,0.0,0.0,87,0.00,,---,0.00,VWS V14.01,2013-06-28 09:14:00,
2013-06-28 05:17:00,71.0,67.3,29.75,SSW,202,0.0,0.0,88,0.00,,---,0.00,VWS V14.01,2013-06-28 09:17:00,
2013-06-28 05:19:00,70.8,66.7,29.75,SSW,202,0.0,0.0,87,0.00,,---,0.00,VWS V14.01,2013-06-28 09:19:00,
2013-06-28 05:20:00,70.8,66.7,29.75,SSW,202,0.0,0.0,87,0.00,,---,0.00,VWS V14.01,2013-06-28 09:20:00,
2013-06-28 05:22:00,71.0,67.3,29.75,SSW,202,0.0,0.0,88,0.00,,---,0.00,VWS V14.01,2013-06-28 09:22:00,
2013-06-28 05:24:00,70.8,66.7,29.75,SSW,202,0.0,0.0,87,0.00,,---,0.00,VWS V14.01,2013-06-28 09:24:00,
2013-06-28 05:25:00,70.8,66.7,29.74,SSW,202,0.0,0.0,87,0.00,,---,0.00,VWS V14.01,2013-06-28 09:25:00,
2013-06-28 05:27:00,71.2,67.5,29.74,SSW,202,0.0,0.0,88,0.00,,---,0.00,VWS V14.01,2013-06-28 09:27:00,
2013-06-28 05:29:00,71.0,67.3,29.75,SSW,202,0.0,0.0,88,0.00,,---,0.00,VWS V14.01,2013-06-28 09:29:00,
2013-06-28 05:30:00,70.8,67.1,29.75,SSW,202,0.0,0.0,88,0.00,,---,0.00,VWS V14.01,2013-06-28 09:30:00,
2013-06-28 05:31:00,70.8,67.1,29.75,SSW,202,0.0,0.0,88,0.00,,---,0.00,VWS V14.01,2013-06-28 09:31:00,
2013-06-28 05:32:00,70.8,67.1,29.75,SSW,202,0.0,0.0,88,0.00,,---,0.00,VWS V14.01,2013-06-28 09:32:00,
2013-06-28 05:33:00,70.8,67.1,29.75,SSW,202,0.0,0.0,88,0.00,,---,0.00,VWS V14.01,2013-06-28 09:33:00,
2013-06-28 05:35:00,71.0,67.3,29.75,SSW,202,0.0,0.0,88,0.00,,---,0.00,VWS V14.01,2013-06-28 09:35:00,
2013-06-28 05:37:00,71.0,67.6,29.75,SSW,202,0.0,0.0,89,0.00,,---,0.00,VWS V14.01,2013-06-28 09:37:00,
2013-06-28 05:38:00,71.0,67.6,29.75,SSW,202,0.0,0.0,89,0.00,,---,0.00,VWS V14.01,2013-06-28 09:38:00,
2013-06-28 05:41:00,71.0,67.6,29.74,SSW,202,0.0,0.0,89,0.00,,---,0.00,VWS V14.01,2013-06-28 09:41:00,
2013-06-28 05:42:00,71.0,67.6,29.74,SSW,202,0.0,0.0,89,0.00,,---,0.00,VWS V14.01,2013-06-28 09:42:00,
2013-06-28 05:43:00,70.8,67.1,29.75,SSE,158,0.0,0.0,88,0.00,,---,0.00,VWS V14.01,2013-06-28 09:43:00,
2013-06-28 05:46:00,71.0,67.6,29.75,SSE,158,0.0,0.0,89,0.00,,---,0.00,VWS V14.01,2013-06-28 09:46:00,
2013-06-28 05:48:00,71.0,67.6,29.75,SSE,158,0.0,0.0,89,0.00,,---,0.00,VWS V14.01,2013-06-28 09:48:00,
2013-06-28 05:49:00,71.0,67.6,29.75,SSE,158,0.0,0.0,89,0.00,,---,0.00,VWS V14.01,2013-06-28 09:49:00,
2013-06-28 05:51:00,70.8,67.1,29.75,SSE,158,0.0,0.0,88,0.00,,---,0.00,VWS V14.01,2013-06-28 09:51:00,
2013-06-28 05:52:00,70.8,67.1,29.75,SSE,158,0.0,0.0,88,0.00,,---,0.00,VWS V14.01,2013-06-28 09:52:00,
2013-06-28 05:53:00,70.8,67.4,29.75,SSE,158,0.0,0.0,89,0.00,,---,0.00,VWS V14.01,2013-06-28 09:53:00,
2013-06-28 05:54:00,71.0,67.6,29.75,SSE,158,0.0,0.0,89,0.00,,---,0.00,VWS V14.01,2013-06-28 09:54:00,
2013-06-28 05:56:00,71.0,67.6,29.75,SSE,158,0.0,0.0,89,0.00,,---,0.00,VWS V14.01,2013-06-28 09:56:00,
2013-06-28 05:57:00,71.0,67.6,29.75,SSE,158,0.0,0.0,89,0.00,,---,0.00,VWS V14.01,2013-06-28 09:57:00,
2013-06-28 05:58:00,71.0,67.6,29.75,SSE,158,0.0,0.0,89,0.00,,---,0.00,VWS V14.01,2013-06-28 09:58:00,
2013-06-28 05:59:00,71.0,67.6,29.75,SSE,158,0.0,0.0,89,0.00,,---,0.00,VWS V14.01,2013-06-28 09:59:00,
2013-06-28 06:00:00,71.0,67.6,29.75,SSE,158,0.0,0.0,89,0.00,,---,0.00,VWS V14.01,2013-06-28 10:00:00,
2013-06-28 06:01:00,71.4,68.0,29.75,SSE,158,0.0,0.0,89,0.00,,---,0.00,VWS V14.01,2013-06-28 10:01:00,
2013-06-28 06:02:00,71.0,67.6,29.75,SSE,158,0.0,0.0,89,0.00,,---,0.00,VWS V14.01,2013-06-28 10:02:00,
2013-06-28 06:03:00,71.0,67.6,29.74,SSE,158,0.0,0.0,89,0.00,,---,0.00,VWS V14.01,2013-06-28 10:03:00,
2013-06-28 06:04:00,71.0,67.6,29.74,SSE,158,0.0,0.0,89,0.00,,---,0.00,VWS V14.01,2013-06-28 10:04:00,
2013-06-28 06:05:00,71.0,67.6,29.75,SSE,158,0.0,0.0,89,0.00,,---,0.00,VWS V14.01,2013-06-28 10:05:00,
2013-06-28 06:06:00,71.0,67.6,29.75,SSE,158,0.0,0.0,89,0.00,,---,0.00,VWS V14.01,2013-06-28 10:06:00,
2013-06-28 06:07:00,71.0,67.6,29.75,SSE,158,0.0,0.0,89,0.00,,---,0.00,VWS V14.01,2013-06-28 10:07:00,
2013-06-28 06:08:00,71.2,67.8,29.75,SSE,158,0.0,0.0,89,0.00,,---,0.00,VWS V14.01,2013-06-28 10:08:00,
2013-06-28 06:09:00,71.2,67.8,29.74,SSE,158,0.0,0.0,89,0.00,,---,0.00,VWS V14.01,2013-06-28 10:09:00,
2013-06-28 06:10:00,71.2,67.8,29.74,SSE,158,0.0,0.0,89,0.00,,---,0.00,VWS V14.01,2013-06-28 10:10:00,
2013-06-28 06:11:00,71.2,67.8,29.74,SSE,158,0.0,0.0,89,0.00,,---,0.00,VWS V14.01,2013-06-28 10:11:00,
2013-06-28 06:13:00,70.8,67.1,29.74,SSE,158,0.0,0.0,88,0.00,,---,0.00,VWS V14.01,2013-06-28 10:13:00,
2013-06-28 06:14:00,70.8,67.1,29.74,SSE,158,0.0,0.0,88,0.00,,---,0.00,VWS V14.01,2013-06-28 10:14:00,
2013-06-28 06:15:00,70.8,67.1,29.74,SSE,158,0.0,0.0,88,0.00,,---,0.00,VWS V14.01,2013-06-28 10:15:00,
2013-06-28 06:16:00,71.0,67.6,29.74,SSE,158,0.0,0.0,89,0.00,,---,0.00,VWS V14.01,2013-06-28 10:16:00,
2013-06-28 06:19:00,71.0,67.6,29.74,SSE,158,0.0,0.0,89,0.00,,---,0.00,VWS V14.01,2013-06-28 10:19:00,
2013-06-28 06:20:00,71.0,67.6,29.74,SSE,158,0.0,0.0,89,0.00,,---,0.00,VWS V14.01,2013-06-28 10:20:00,
2013-06-28 06:21:00,71.2,67.8,29.75,SSE,158,0.0,0.0,89,0.00,,---,0.00,VWS V14.01,2013-06-28 10:21:00,
2013-06-28 06:22:00,71.2,67.8,29.75,SSE,158,0.0,0.0,89,0.00,,---,0.00,VWS V14.01,2013-06-28 10:22:00,
2013-06-28 06:24:00,70.8,67.1,29.74,SSE,158,0.0,0.0,88,0.00,,---,0.00,VWS V14.01,2013-06-28 10:24:00,
2013-06-28 06:25:00,70.8,67.1,29.74,SSE,158,0.0,0.0,88,0.00,,---,0.00,VWS V14.01,2013-06-28 10:25:00,
2013-06-28 06:27:00,70.8,67.1,29.74,SSE,158,0.0,0.0,88,0.00,,---,0.00,VWS V14.01,2013-06-28 10:27:00,
2013-06-28 06:29:00,71.2,67.8,29.75,SSE,158,0.0,0.0,89,0.00,,---,0.00,VWS V14.01,2013-06-28 10:29:00,
2013-06-28 06:30:00,71.2,67.8,29.74,SSE,158,0.0,0.0,89,0.00,,---,0.00,VWS V14.01,2013-06-28 10:30:00,
2013-06-28 06:32:00,71.0,67.6,29.75,SSE,158,0.0,0.0,89,0.00,,---,0.00,VWS V14.01,2013-06-28 10:32:00,
2013-06-28 06:35:00,70.8,67.1,29.74,SSE,158,0.0,0.0,88,0.00,,---,0.00,VWS V14.01,2013-06-28 10:35:00,
2013-06-28 06:36:00,70.8,67.1,29.74,SSE,158,0.0,0.0,88,0.00,,---,0.00,VWS V14.01,2013-06-28 10:36:00,
2013-06-28 06:37:00,70.8,67.1,29.74,SSE,158,0.0,0.0,88,0.00,,---,0.00,VWS V14.01,2013-06-28 10:37:00,
2013-06-28 06:40:00,70.8,67.1,29.74,SSE,158,0.0,0.0,88,0.00,,---,0.00,VWS V14.01,2013-06-28 10:40:00,
2013-06-28 06:41:00,70.8,67.1,29.74,SSE,158,0.0,0.0,88,0.00,,---,0.00,VWS V14.01,2013-06-28 10:41:00,
2013-06-28 06:42:00,70.8,67.1,29.74,SSE,158,0.0,0.0,88,0.00,,---,0.00,VWS V14.01,2013-06-28 10:42:00,
2013-06-28 06:43:00,70.8,67.1,29.74,SSE,158,0.0,0.0,88,0.00,,---,0.00,VWS V14.01,2013-06-28 10:43:00,
2013-06-28 06:45:00,71.0,67.3,29.74,SSE,158,0.0,0.0,88,0.00,,---,0.00,VWS V14.01,2013-06-28 10:45:00,
2013-06-28 06:46:00,71.0,67.3,29.75,SSE,158,0.0,0.0,88,0.00,,---,0.00,VWS V14.01,2013-06-28 10:46:00,
2013-06-28 06:48:00,70.8,67.1,29.75,SSE,158,0.0,0.0,88,0.00,,---,0.00,VWS V14.01,2013-06-28 10:48:00,
2013-06-28 06:50:00,70.8,67.1,29.74,SSE,158,0.0,0.0,88,0.00,,---,0.00,VWS V14.01,2013-06-28 10:50:00,
2013-06-28 06:51:00,71.2,67.5,29.74,SSE,158,0.0,0.0,88,0.00,,---,0.00,VWS V14.01,2013-06-28 10:51:00,
2013-06-28 06:53:00,71.2,67.8,29.74,SSE,158,0.0,0.0,89,0.00,,---,0.00,VWS V14.01,2013-06-28 10:53:00,
2013-06-28 06:55:00,70.8,67.1,29.74,SSE,158,0.0,0.0,88,0.00,,---,0.00,VWS V14.01,2013-06-28 10:55:00,
2013-06-28 06:57:00,71.2,67.5,29.74,SSE,158,0.0,0.0,88,0.00,,---,0.00,VWS V14.01,2013-06-28 10:57:00,
2013-06-28 06:59:00,71.2,67.5,29.74,SSE,158,0.0,0.0,88,0.00,,---,0.00,VWS V14.01,2013-06-28 10:59:00,
2013-06-28 07:01:00,71.2,67.5,29.75,SSE,158,0.0,0.0,88,0.00,,---,0.00,VWS V14.01,2013-06-28 11:01:00,
2013-06-28 07:02:00,71.0,67.3,29.75,SSE,158,0.0,0.0,88,0.00,,---,0.00,VWS V14.01,2013-06-28 11:02:00,
2013-06-28 07:04:00,71.0,67.3,29.74,SSE,158,0.0,0.0,88,0.00,,---,0.00,VWS V14.01,2013-06-28 11:04:00,
2013-06-28 07:06:00,71.0,67.3,29.74,SSE,158,3.5,3.5,88,0.00,,---,0.00,VWS V14.01,2013-06-28 11:06:00,
2013-06-28 07:07:00,71.2,67.5,29.74,SSE,158,0.0,0.0,88,0.00,,---,0.00,VWS V14.01,2013-06-28 11:07:00,
2013-06-28 07:08:00,71.2,67.5,29.74,SSE,158,0.0,0.0,88,0.00,,---,0.00,VWS V14.01,2013-06-28 11:08:00,
2013-06-28 07:09:00,70.8,67.1,29.74,SSE,158,0.0,0.0,88,0.00,,---,0.00,VWS V14.01,2013-06-28 11:09:00,
2013-06-28 07:11:00,71.0,67.3,29.74,SE,135,0.0,0.0,88,0.00,,---,0.00,VWS V14.01,2013-06-28 11:11:00,
2013-06-28 07:12:00,71.0,67.3,29.74,SE,135,0.0,0.0,88,0.00,,---,0.00,VWS V14.01,2013-06-28 11:12:00,
2013-06-28 07:13:00,71.0,67.3,29.74,SE,135,0.0,0.0,88,0.00,,---,0.00,VWS V14.01,2013-06-28 11:13:00,
2013-06-28 07:14:00,71.2,67.5,29.74,SE,135,0.0,0.0,88,0.00,,---,0.00,VWS V14.01,2013-06-28 11:14:00,
2013-06-28 07:16:00,71.2,67.5,29.74,SE,135,0.0,0.0,88,0.00,,---,0.00,VWS V14.01,2013-06-28 11:16:00,
2013-06-28 07:18:00,71.2,67.5,29.74,SE,135,0.0,0.0,88,0.00,,---,0.00,VWS V14.01,2013-06-28 11:18:00,
2013-06-28 07:19:00,71.2,67.5,29.74,SE,135,0.0,0.0,88,0.00,,---,0.00,VWS V14.01,2013-06-28 11:19:00,
2013-06-28 07:22:00,71.4,67.7,29.74,SSE,158,0.0,0.0,88,0.00,,---,0.00,VWS V14.01,2013-06-28 11:22:00,
2013-06-28 07:23:00,71.2,67.5,29.74,SSE,158,0.0,0.0,88,0.00,,---,0.00,VWS V14.01,2013-06-28 11:23:00,
2013-06-28 07:24:00,71.2,67.5,29.74,SSE,158,0.0,0.0,88,0.00,,---,0.00,VWS V14.01,2013-06-28 11:24:00,
2013-06-28 07:28:00,71.2,67.5,29.74,South,180,0.0,0.0,88,0.00,,---,0.00,VWS V14.01,2013-06-28 11:28:00,
2013-06-28 07:29:00,71.2,67.5,29.74,South,180,0.0,0.0,88,0.00,,---,0.00,VWS V14.01,2013-06-28 11:29:00,
2013-06-28 07:30:00,71.0,67.3,29.74,South,180,0.0,0.0,88,0.00,,---,0.00,VWS V14.01,2013-06-28 11:30:00,
2013-06-28 07:33:00,71.0,67.3,29.74,South,180,0.0,0.0,88,0.00,,---,0.00,VWS V14.01,2013-06-28 11:33:00,
2013-06-28 07:34:00,71.4,68.0,29.74,South,180,0.0,0.0,89,0.00,,---,0.00,VWS V14.01,2013-06-28 11:34:00,
2013-06-28 07:35:00,71.4,68.0,29.74,South,180,0.0,0.0,89,0.00,,---,0.00,VWS V14.01,2013-06-28 11:35:00,
2013-06-28 07:39:00,71.4,68.0,29.74,South,180,4.2,4.2,89,0.00,,---,0.00,VWS V14.01,2013-06-28 11:39:00,
2013-06-28 07:40:00,71.4,68.0,29.74,South,180,4.2,4.2,89,0.00,,---,0.00,VWS V14.01,2013-06-28 11:40:00,
2013-06-28 07:44:00,71.5,68.1,29.74,South,180,0.0,0.0,89,0.00,,---,0.00,VWS V14.01,2013-06-28 11:44:00,
2013-06-28 07:45:00,71.5,68.1,29.75,South,180,0.0,0.0,89,0.00,,---,0.00,VWS V14.01,2013-06-28 11:45:00,
2013-06-28 07:46:00,71.5,68.1,29.75,South,180,0.0,0.0,89,0.00,,---,0.00,VWS V14.01,2013-06-28 11:46:00,
2013-06-28 07:49:00,71.5,68.1,29.74,South,180,0.0,0.0,89,0.00,,---,0.00,VWS V14.01,2013-06-28 11:49:00,
2013-06-28 07:50:00,71.5,68.1,29.74,South,180,0.0,0.0,89,0.00,,---,0.00,VWS V14.01,2013-06-28 11:50:00,
2013-06-28 07:51:00,71.5,68.1,29.74,South,180,0.0,0.0,89,0.00,,---,0.00,VWS V14.01,2013-06-28 11:51:00,
2013-06-28 07:54:00,71.4,67.7,29.75,SW,225,0.0,0.0,88,0.00,,---,0.00,VWS V14.01,2013-06-28 11:54:00,
2013-06-28 07:56:00,71.4,67.7,29.75,South,180,2.0,2.0,88,0.00,,---,0.00,VWS V14.01,2013-06-28 11:56:00,
2013-06-28 07:57:00,71.7,68.3,29.74,SSE,158,0.0,0.0,89,0.00,,---,0.00,VWS V14.01,2013-06-28 11:57:00,
2013-06-28 07:59:00,71.7,68.3,29.75,SW,225,3.3,3.3,89,0.00,,---,0.00,VWS V14.01,2013-06-28 11:59:00,
2013-06-28 08:01:00,71.7,68.3,29.75,SW,225,3.3,3.3,89,0.00,,---,0.00,VWS V14.01,2013-06-28 12:01:00,
2013-06-28 08:03:00,71.7,68.3,29.75,SSW,202,0.0,0.0,89,0.00,,---,0.00,VWS V14.01,2013-06-28 12:03:00,
2013-06-28 08:04:00,71.9,68.5,29.75,South,180,0.0,0.0,89,0.00,,---,0.00,VWS V14.01,2013-06-28 12:04:00,
2013-06-28 08:07:00,71.7,68.3,29.75,SSW,202,5.8,5.8,89,0.00,,---,0.00,VWS V14.01,2013-06-28 12:07:00,
2013-06-28 08:08:00,71.9,68.5,29.75,SW,225,0.0,5.8,89,0.00,,---,0.00,VWS V14.01,2013-06-28 12:08:00,
2013-06-28 08:09:00,71.9,68.5,29.75,SW,225,0.0,0.0,89,0.00,,---,0.00,VWS V14.01,2013-06-28 12:09:00,
2013-06-28 08:12:00,72.1,68.7,29.75,South,180,0.0,0.0,89,0.00,,---,0.00,VWS V14.01,2013-06-28 12:12:00,
2013-06-28 08:13:00,72.1,68.7,29.75,South,180,0.0,0.0,89,0.00,,---,0.00,VWS V14.01,2013-06-28 12:13:00,
2013-06-28 08:14:00,72.1,68.7,29.75,South,180,0.0,0.0,89,0.00,,---,0.00,VWS V14.01,2013-06-28 12:14:00,
2013-06-28 08:17:00,72.1,68.7,29.75,South,180,5.5,5.5,89,0.00,,---,0.00,VWS V14.01,2013-06-28 12:17:00,
2013-06-28 08:18:00,72.1,68.3,29.74,SSE,158,0.0,5.5,88,0.00,,---,0.00,VWS V14.01,2013-06-28 12:18:00,
2013-06-28 08:19:00,72.1,68.3,29.74,SSE,158,0.0,5.5,88,0.00,,---,0.00,VWS V14.01,2013-06-28 12:19:00,
2013-06-28 08:20:00,72.1,68.3,29.74,SSE,158,0.0,0.0,88,0.00,,---,0.00,VWS V14.01,2013-06-28 12:20:00,
2013-06-28 08:22:00,71.9,68.2,29.74,South,180,1.3,1.3,88,0.00,,---,0.00,VWS V14.01,2013-06-28 12:22:00,
2013-06-28 08:23:00,71.9,68.2,29.75,South,180,0.0,0.0,88,0.00,,---,0.00,VWS V14.01,2013-06-28 12:23:00,
2013-06-28 08:24:00,71.9,68.2,29.75,South,180,0.0,0.0,88,0.00,,---,0.00,VWS V14.01,2013-06-28 12:24:00,
2013-06-28 08:25:00,71.9,68.2,29.75,South,180,0.0,0.0,88,0.00,,---,0.00,VWS V14.01,2013-06-28 12:25:00,
2013-06-28 08:26:00,71.9,68.2,29.75,South,180,0.0,0.0,88,0.00,,---,0.00,VWS V14.01,2013-06-28 12:26:00,
2013-06-28 08:29:00,71.9,68.2,29.74,SSW,202,0.0,0.0,88,0.00,,---,0.00,VWS V14.01,2013-06-28 12:29:00,
2013-06-28 08:30:00,72.1,68.3,29.75,SSW,202,2.9,2.9,88,0.00,,---,0.00,VWS V14.01,2013-06-28 12:30:00,
2013-06-28 08:31:00,72.1,68.3,29.74,SW,225,0.0,0.0,88,0.00,,---,0.00,VWS V14.01,2013-06-28 12:31:00,
2013-06-28 08:34:00,72.1,68.3,29.75,SW,225,0.0,0.0,88,0.00,,---,0.00,VWS V14.01,2013-06-28 12:34:00,
2013-06-28 08:35:00,72.1,68.3,29.75,SW,225,0.0,0.0,88,0.00,,---,0.00,VWS V14.01,2013-06-28 12:35:00,
2013-06-28 08:37:00,72.1,68.3,29.75,SW,225,0.0,0.0,88,0.00,,---,0.00,VWS V14.01,2013-06-28 12:37:00,
2013-06-28 08:39:00,71.7,67.6,29.75,SW,225,0.0,0.0,87,0.00,,---,0.00,VWS V14.01,2013-06-28 12:39:00,
2013-06-28 08:40:00,71.7,67.6,29.75,SW,225,0.0,0.0,87,0.00,,---,0.00,VWS V14.01,2013-06-28 12:40:00,
2013-06-28 08:41:00,72.1,68.0,29.74,SW,225,0.0,0.0,87,0.00,,---,0.00,VWS V14.01,2013-06-28 12:41:00,
2013-06-28 08:42:00,72.1,68.0,29.74,SW,225,0.0,0.0,87,0.00,,---,0.00,VWS V14.01,2013-06-28 12:42:00,
2013-06-28 08:45:00,72.3,68.6,29.74,SSW,202,0.0,0.0,88,0.00,,---,0.00,VWS V14.01,2013-06-28 12:45:00,
2013-06-28 08:46:00,72.3,68.2,29.73,SSW,202,0.0,0.0,87,0.00,,---,0.00,VWS V14.01,2013-06-28 12:46:00,
2013-06-28 08:47:00,72.3,68.2,29.73,SSW,202,0.0,0.0,87,0.00,,---,0.00,VWS V14.01,2013-06-28 12:47:00,
2013-06-28 08:50:00,72.4,68.0,29.73,SSW,202,0.0,0.0,86,0.00,,---,0.00,VWS V14.01,2013-06-28 12:50:00,
2013-06-28 08:52:00,72.4,68.0,29.73,South,180,5.5,5.5,86,0.00,,---,0.00,VWS V14.01,2013-06-28 12:52:00,
2013-06-28 08:53:00,72.4,68.0,29.73,South,180,5.5,5.5,86,0.00,,---,0.00,VWS V14.01,2013-06-28 12:53:00,
2013-06-28 08:55:00,72.6,68.2,29.74,SSE,158,6.2,6.2,86,0.00,,---,0.00,VWS V14.01,2013-06-28 12:55:00,
2013-06-28 08:57:00,72.6,68.2,29.73,SSE,158,0.0,0.0,86,0.00,,---,0.00,VWS V14.01,2013-06-28 12:57:00,
2013-06-28 08:58:00,72.6,68.2,29.74,SSE,158,0.0,0.0,86,0.00,,---,0.00,VWS V14.01,2013-06-28 12:58:00,
2013-06-28 09:00:00,72.6,68.2,29.73,SSE,158,6.0,6.0,86,0.00,,---,0.00,VWS V14.01,2013-06-28 13:00:00,
2013-06-28 09:01:00,72.6,68.2,29.73,SSE,158,5.8,5.8,86,0.00,,---,0.00,VWS V14.01,2013-06-28 13:01:00,
2013-06-28 09:02:00,72.6,68.2,29.73,SSE,158,5.8,5.8,86,0.00,,---,0.00,VWS V14.01,2013-06-28 13:02:00,
2013-06-28 09:04:00,72.6,68.2,29.73,SSE,158,0.0,0.0,86,0.00,,---,0.00,VWS V14.01,2013-06-28 13:04:00,
2013-06-28 09:05:00,72.6,68.2,29.73,South,180,0.0,0.0,86,0.00,,---,0.00,VWS V14.01,2013-06-28 13:05:00,
2013-06-28 09:06:00,72.6,68.2,29.73,South,180,0.0,0.0,86,0.00,,---,0.00,VWS V14.01,2013-06-28 13:06:00,
2013-06-28 09:07:00,73.0,68.6,29.73,South,180,0.0,0.0,86,0.00,,---,0.00,VWS V14.01,2013-06-28 13:07:00,
2013-06-28 09:10:00,73.0,68.6,29.73,South,180,0.0,0.0,86,0.00,,---,0.00,VWS V14.01,2013-06-28 13:10:00,
2013-06-28 09:11:00,73.0,68.6,29.73,SSE,158,5.5,5.5,86,0.00,,---,0.00,VWS V14.01,2013-06-28 13:11:00,
2013-06-28 09:12:00,73.0,68.6,29.73,SSE,158,5.5,5.5,86,0.00,,---,0.00,VWS V14.01,2013-06-28 13:12:00,
2013-06-28 09:16:00,73.3,68.5,29.73,SSE,158,0.0,3.3,85,0.00,,---,0.00,VWS V14.01,2013-06-28 13:16:00,
2013-06-28 09:17:00,73.3,68.5,29.73,SSE,158,0.0,0.0,85,0.00,,---,0.00,VWS V14.01,2013-06-28 13:17:00,
2013-06-28 09:18:00,73.3,68.5,29.73,SSE,158,0.0,0.0,85,0.00,,---,0.00,VWS V14.01,2013-06-28 13:18:00,
2013-06-28 09:21:00,73.5,68.7,29.73,South,180,0.0,2.0,85,0.00,,---,0.00,VWS V14.01,2013-06-28 13:21:00,
2013-06-28 09:22:00,73.5,68.7,29.73,South,180,0.0,0.0,85,0.00,,---,0.00,VWS V14.01,2013-06-28 13:22:00,
2013-06-28 09:23:00,73.7,68.9,29.73,South,180,6.9,6.9,85,0.00,,---,0.00,VWS V14.01,2013-06-28 13:23:00,
2013-06-28 09:26:00,74.1,69.3,29.73,South,180,0.0,0.0,85,0.00,,---,0.00,VWS V14.01,2013-06-28 13:26:00,
2013-06-28 09:27:00,74.1,69.3,29.73,South,180,0.0,0.0,85,0.00,,---,0.00,VWS V14.01,2013-06-28 13:27:00,
2013-06-28 09:28:00,74.1,68.6,29.73,SSE,158,5.5,5.5,83,0.00,,---,0.00,VWS V14.01,2013-06-28 13:28:00,
2013-06-28 09:32:00,74.6,69.1,29.73,SSE,158,5.3,5.3,83,0.00,,---,0.00,VWS V14.01,2013-06-28 13:32:00,
2013-06-28 09:33:00,74.6,68.8,29.73,SSE,158,0.0,0.0,82,0.00,,---,0.00,VWS V14.01,2013-06-28 13:33:00,
2013-06-28 09:34:00,74.6,68.8,29.73,SSE,158,0.0,0.0,82,0.00,,---,0.00,VWS V14.01,2013-06-28 13:34:00,
2013-06-28 09:37:00,74.8,68.9,29.73,SSE,158,2.4,2.4,82,0.00,,---,0.00,VWS V14.01,2013-06-28 13:37:00,
2013-06-28 09:38:00,74.8,68.9,29.73,SSE,158,2.4,2.4,82,0.00,,---,0.00,VWS V14.01,2013-06-28 13:38:00,
2013-06-28 09:39:00,74.8,68.9,29.73,SSE,158,2.4,2.4,82,0.00,,---,0.00,VWS V14.01,2013-06-28 13:39:00,
2013-06-28 09:41:00,75.1,68.9,29.73,SSW,202,0.0,0.0,81,0.00,,---,0.00,VWS V14.01,2013-06-28 13:41:00,
2013-06-28 09:42:00,75.1,68.9,29.73,South,180,4.0,4.0,81,0.00,,---,0.00,VWS V14.01,2013-06-28 13:42:00,
2013-06-28 09:43:00,75.3,68.7,29.72,SW,225,0.0,4.0,80,0.00,,---,0.00,VWS V14.01,2013-06-28 13:43:00,
2013-06-28 09:44:00,75.3,68.7,29.72,SW,225,0.0,4.0,80,0.00,,---,0.00,VWS V14.01,2013-06-28 13:44:00,
2013-06-28 09:47:00,75.3,68.3,29.72,South,180,2.4,2.4,79,0.00,,---,0.00,VWS V14.01,2013-06-28 13:47:00,
2013-06-28 09:49:00,75.1,67.8,29.72,South,180,6.0,6.0,78,0.00,,---,0.00,VWS V14.01,2013-06-28 13:49:00,
2013-06-28 09:52:00,75.1,67.8,29.72,South,180,0.0,0.0,78,0.00,,---,0.00,VWS V14.01,2013-06-28 13:52:00,
2013-06-28 09:54:00,75.3,68.0,29.73,South,180,0.0,0.0,78,0.00,,---,0.00,VWS V14.01,2013-06-28 13:54:00,
2013-06-28 09:55:00,75.3,67.6,29.73,South,180,4.6,4.6,77,0.00,,---,0.00,VWS V14.01,2013-06-28 13:55:00,
2013-06-28 09:57:00,75.3,67.6,29.73,SW,225,2.9,2.9,77,0.00,,---,0.00,VWS V14.01,2013-06-28 13:57:00,
2013-06-28 09:59:00,75.3,67.6,29.73,SSW,202,4.6,4.6,77,0.00,,---,0.00,VWS V14.01,2013-06-28 13:59:00,
2013-06-28 10:00:00,75.3,67.6,29.73,SSW,202,4.6,4.6,77,0.00,,---,0.00,VWS V14.01,2013-06-28 14:00:00,
2013-06-28 10:02:00,75.3,67.6,29.72,SSW,202,0.0,0.0,77,0.00,,---,0.00,VWS V14.01,2013-06-28 14:02:00,
2013-06-28 10:03:00,75.3,67.6,29.72,SSW,202,0.0,0.0,77,0.00,,---,0.00,VWS V14.01,2013-06-28 14:03:00,
2013-06-28 10:04:00,75.3,67.2,29.72,West,270,0.0,0.0,76,0.00,,---,0.00,VWS V14.01,2013-06-28 14:04:00,
2013-06-28 10:05:00,75.3,67.2,29.72,West,270,0.0,0.0,76,0.00,,---,0.00,VWS V14.01,2013-06-28 14:05:00,
2013-06-28 10:07:00,75.9,67.8,29.72,South,180,6.7,6.7,76,0.00,,---,0.00,VWS V14.01,2013-06-28 14:07:00,
2013-06-28 10:08:00,75.9,67.4,29.71,SSE,158,5.5,6.7,75,0.00,,---,0.00,VWS V14.01,2013-06-28 14:08:00,
2013-06-28 10:10:00,75.9,67.4,29.71,SSW,202,0.0,5.5,75,0.00,,---,0.00,VWS V14.01,2013-06-28 14:10:00,
2013-06-28 10:13:00,76.0,67.5,29.72,SSW,202,0.0,0.0,75,0.00,,---,0.00,VWS V14.01,2013-06-28 14:13:00,
2013-06-28 10:15:00,76.0,67.5,29.72,SSW,202,0.0,0.0,75,0.00,,---,0.00,VWS V14.01,2013-06-28 14:15:00,
2013-06-28 10:18:00,76.2,67.3,29.72,SSE,158,0.0,0.0,74,0.00,,---,0.00,VWS V14.01,2013-06-28 14:18:00,
2013-06-28 10:19:00,76.2,67.3,29.72,SSE,158,0.0,0.0,74,0.00,,---,0.00,VWS V14.01,2013-06-28 14:19:00,
2013-06-28 10:20:00,76.4,67.5,29.72,SSE,158,3.3,3.3,74,0.00,,---,0.00,VWS V14.01,2013-06-28 14:20:00,
2013-06-28 10:23:00,76.6,67.7,29.72,SSW,202,3.3,3.3,74,0.00,,---,0.00,VWS V14.01,2013-06-28 14:23:00,
2013-06-28 10:25:00,76.6,67.7,29.72,SSE,158,0.0,0.0,74,0.00,,---,0.00,VWS V14.01,2013-06-28 14:25:00,
2013-06-28 10:26:00,76.6,67.7,29.72,SSE,158,0.0,0.0,74,0.00,,---,0.00,VWS V14.01,2013-06-28 14:26:00,
2013-06-28 10:29:00,76.8,67.9,29.72,South,180,0.0,0.0,74,0.00,,---,0.00,VWS V14.01,2013-06-28 14:29:00,
2013-06-28 10:30:00,76.8,67.5,29.71,South,180,9.6,9.6,73,0.00,,---,0.00,VWS V14.01,2013-06-28 14:30:00,
2013-06-28 10:31:00,76.8,67.5,29.71,South,180,9.6,9.6,73,0.00,,---,0.00,VWS V14.01,2013-06-28 14:31:00,
2013-06-28 10:34:00,77.1,67.8,29.72,SSW,202,5.5,9.6,73,0.00,,---,0.00,VWS V14.01,2013-06-28 14:34:00,
2013-06-28 10:35:00,76.9,67.6,29.72,West,270,0.0,5.5,73,0.00,,---,0.00,VWS V14.01,2013-06-28 14:35:00,
2013-06-28 10:36:00,76.9,67.6,29.72,West,270,0.0,5.5,73,0.00,,---,0.00,VWS V14.01,2013-06-28 14:36:00,
2013-06-28 10:39:00,76.9,67.6,29.72,SSW,202,6.9,6.9,73,0.00,,---,0.00,VWS V14.01,2013-06-28 14:39:00,
2013-06-28 10:40:00,77.3,68.0,29.71,South,180,0.0,0.0,73,0.00,,---,0.00,VWS V14.01,2013-06-28 14:40:00,
2013-06-28 10:41:00,77.3,68.0,29.71,South,180,0.0,0.0,73,0.00,,---,0.00,VWS V14.01,2013-06-28 14:41:00,
2013-06-28 10:44:00,77.5,67.8,29.71,SSW,202,5.8,5.8,72,0.00,,---,0.00,VWS V14.01,2013-06-28 14:44:00,
2013-06-28 10:45:00,77.5,67.8,29.71,South,180,5.5,5.8,72,0.00,,---,0.00,VWS V14.01,2013-06-28 14:45:00,
2013-06-28 10:46:00,77.5,67.8,29.71,South,180,5.5,5.8,72,0.00,,---,0.00,VWS V14.01,2013-06-28 14:46:00,
2013-06-28 10:47:00,77.5,67.8,29.71,South,180,5.5,5.5,72,0.00,,---,0.00,VWS V14.01,2013-06-28 14:47:00,
2013-06-28 10:50:00,77.7,68.0,29.71,SE,135,5.3,5.3,72,0.00,,---,0.00,VWS V14.01,2013-06-28 14:50:00,
2013-06-28 10:51:00,77.8,67.7,29.71,West,270,0.0,0.0,71,0.00,,---,0.00,VWS V14.01,2013-06-28 14:51:00,
2013-06-28 10:52:00,78.0,67.4,29.71,SSE,158,10.2,10.2,70,0.00,,---,0.00,VWS V14.01,2013-06-28 14:52:00,
2013-06-28 10:55:00,78.0,67.4,29.71,SSE,158,10.2,10.2,70,0.00,,---,0.00,VWS V14.01,2013-06-28 14:55:00,
2013-06-28 10:56:00,78.2,67.6,29.71,SW,225,0.0,10.2,70,0.00,,---,0.00,VWS V14.01,2013-06-28 14:56:00,
2013-06-28 10:57:00,78.2,67.6,29.71,SW,225,0.0,0.0,70,0.00,,---,0.00,VWS V14.01,2013-06-28 14:57:00,
2013-06-28 11:00:00,78.2,67.6,29.71,SSE,158,5.3,5.3,70,0.00,,---,0.00,VWS V14.01,2013-06-28 15:00:00,
2013-06-28 11:01:00,78.0,67.0,29.71,SSE,158,5.5,5.5,69,0.00,,---,0.00,VWS V14.01,2013-06-28 15:01:00,
2013-06-28 11:02:00,78.0,67.0,29.71,SSE,158,5.5,5.5,69,0.00,,---,0.00,VWS V14.01,2013-06-28 15:02:00,
2013-06-28 11:03:00,78.0,67.4,29.71,SSE,158,5.5,5.5,70,0.00,,---,0.00,VWS V14.01,2013-06-28 15:03:00,
2013-06-28 11:06:00,78.4,67.4,29.71,SW,225,4.9,4.9,69,0.00,,---,0.00,VWS V14.01,2013-06-28 15:06:00,
2013-06-28 11:07:00,78.4,67.4,29.71,SW,225,4.9,4.9,69,0.00,,---,0.00,VWS V14.01,2013-06-28 15:07:00,
2013-06-28 11:08:00,78.7,67.7,29.71,SSW,202,9.1,9.1,69,0.00,,---,0.00,VWS V14.01,2013-06-28 15:08:00,
2013-06-28 11:11:00,78.9,67.9,29.70,SSW,202,7.6,7.6,69,0.00,,---,0.00,VWS V14.01,2013-06-28 15:11:00,
2013-06-28 11:12:00,78.9,67.9,29.70,SSW,202,7.6,7.6,69,0.00,,---,0.00,VWS V14.01,2013-06-28 15:12:00,
2013-06-28 11:13:00,79.5,68.4,29.70,SSW,202,0.0,7.6,69,0.00,,---,0.00,VWS V14.01,2013-06-28 15:13:00,
2013-06-28 11:14:00,79.5,68.4,29.70,SSW,202,0.0,7.6,69,0.00,,---,0.00,VWS V14.01,2013-06-28 15:14:00,
2013-06-28 11:16:00,79.6,68.1,29.70,SSW,202,3.5,3.5,68,0.00,,---,0.00,VWS V14.01,2013-06-28 15:16:00,
2013-06-28 11:17:00,79.6,68.1,29.70,SSW,202,3.5,3.5,68,0.00,,---,0.00,VWS V14.01,2013-06-28 15:17:00,
2013-06-28 11:18:00,79.6,68.1,29.71,SSW,202,3.5,3.5,68,0.00,,---,0.00,VWS V14.01,2013-06-28 15:18:00,
2013-06-28 11:19:00,79.8,67.9,29.71,South,180,3.5,3.5,67,0.00,,---,0.00,VWS V14.01,2013-06-28 15:19:00,
2013-06-28 11:21:00,79.8,67.9,29.70,South,180,4.4,4.4,67,0.00,,---,0.00,VWS V14.01,2013-06-28 15:21:00,
2013-06-28 11:22:00,80.0,67.6,29.70,South,180,9.6,9.6,66,0.00,,---,0.00,VWS V14.01,2013-06-28 15:22:00,
2013-06-28 11:23:00,80.0,67.6,29.70,South,180,9.6,9.6,66,0.00,,---,0.00,VWS V14.01,2013-06-28 15:23:00,
2013-06-28 11:24:00,80.0,67.6,29.70,South,180,9.6,9.6,66,0.00,,---,0.00,VWS V14.01,2013-06-28 15:24:00,
2013-06-28 11:25:00,80.0,67.2,29.70,South,180,0.0,9.6,65,0.00,,---,0.00,VWS V14.01,2013-06-28 15:25:00,
2013-06-28 11:26:00,80.4,67.1,29.70,West,270,0.0,0.0,64,0.00,,---,0.00,VWS V14.01,2013-06-28 15:26:00,
2013-06-28 11:27:00,80.4,67.1,29.70,West,270,0.0,0.0,64,0.00,,---,0.00,VWS V14.01,2013-06-28 15:27:00,
2013-06-28 11:28:00,80.5,67.2,29.70,South,180,8.5,8.5,64,0.00,,---,0.00,VWS V14.01,2013-06-28 15:28:00,
2013-06-28 11:29:00,80.5,67.2,29.70,South,180,8.5,8.5,64,0.00,,---,0.00,VWS V14.01,2013-06-28 15:29:00,
2013-06-28 11:30:00,80.5,67.2,29.70,South,180,8.5,8.5,64,0.00,,---,0.00,VWS V14.01,2013-06-28 15:30:00,
2013-06-28 11:32:00,80.5,66.8,29.70,SSW,202,9.3,9.3,63,0.00,,---,0.00,VWS V14.01,2013-06-28 15:32:00,
2013-06-28 11:33:00,80.5,66.8,29.70,SSW,202,9.3,9.3,63,0.00,,---,0.00,VWS V14.01,2013-06-28 15:33:00,
2013-06-28 11:35:00,80.7,66.9,29.70,SSW,202,6.0,6.0,63,0.00,,---,0.00,VWS V14.01,2013-06-28 15:35:00,
2013-06-28 11:37:00,81.1,66.9,29.70,SW,225,5.5,6.0,62,0.00,,---,0.00,VWS V14.01,2013-06-28 15:37:00,
2013-06-28 11:39:00,81.1,66.9,29.70,SW,225,5.5,5.5,62,0.00,,---,0.00,VWS V14.01,2013-06-28 15:39:00,
2013-06-28 11:40:00,81.1,66.4,29.70,South,180,11.6,11.6,61,0.00,,---,0.00,VWS V14.01,2013-06-28 15:40:00,
2013-06-28 11:42:00,81.3,66.1,29.70,SSE,158,4.4,11.6,60,0.00,,---,0.00,VWS V14.01,2013-06-28 15:42:00,
2013-06-28 11:43:00,81.3,66.1,29.70,SSE,158,4.4,4.4,60,0.00,,---,0.00,VWS V14.01,2013-06-28 15:43:00,
2013-06-28 11:45:00,81.4,66.2,29.70,SSE,158,1.7,1.7,60,0.00,,---,0.00,VWS V14.01,2013-06-28 15:45:00,
2013-06-28 11:47:00,81.8,66.1,29.70,South,180,6.2,9.8,59,0.00,,---,0.00,VWS V14.01,2013-06-28 15:47:00,
2013-06-28 11:48:00,81.8,66.1,29.70,South,180,6.2,9.8,59,0.00,,---,0.00,VWS V14.01,2013-06-28 15:48:00,
2013-06-28 11:50:00,81.8,66.1,29.70,WNW,292,4.9,6.2,59,0.00,,---,0.00,VWS V14.01,2013-06-28 15:50:00,
2013-06-28 11:51:00,82.0,66.3,29.70,WNW,292,4.9,4.9,59,0.00,,---,0.00,VWS V14.01,2013-06-28 15:51:00,
2013-06-28 11:52:00,82.3,66.1,29.70,SSW,202,6.2,6.2,58,0.00,,---,0.00,VWS V14.01,2013-06-28 15:52:00,
2013-06-28 11:53:00,82.3,66.1,29.71,SSW,202,6.2,6.2,58,0.00,,---,0.00,VWS V14.01,2013-06-28 15:53:00,
2013-06-28 11:55:00,82.5,66.7,29.71,SSE,158,6.4,6.4,59,0.00,,---,0.00,VWS V14.01,2013-06-28 15:55:00,
2013-06-28 11:56:00,82.5,66.7,29.71,SSE,158,6.4,6.4,59,0.00,,---,0.00,VWS V14.01,2013-06-28 15:56:00,
2013-06-28 11:57:00,82.3,66.1,29.70,SSE,158,7.1,7.1,58,0.00,,---,0.00,VWS V14.01,2013-06-28 15:57:00,
2013-06-28 11:58:00,82.7,66.4,29.71,SSE,158,5.3,5.3,58,0.00,,---,0.00,VWS V14.01,2013-06-28 15:58:00,
2013-06-28 12:00:00,82.9,66.1,29.70,SSW,202,0.0,0.0,57,0.00,,---,0.00,VWS V14.01,2013-06-28 16:00:00,
2013-06-28 12:01:00,82.9,66.1,29.70,SSW,202,0.0,0.0,57,0.00,,---,0.00,VWS V14.01,2013-06-28 16:01:00,
2013-06-28 12:03:00,82.9,66.6,29.71,SSE,158,5.3,5.3,58,0.00,,---,0.00,VWS V14.01,2013-06-28 16:03:00,
2013-06-28 12:04:00,82.9,66.6,29.71,SSE,158,5.3,5.3,58,0.00,,---,0.00,VWS V14.01,2013-06-28 16:04:00,
2013-06-28 12:05:00,82.9,65.6,29.71,SSE,158,6.2,6.2,56,0.00,,---,0.00,VWS V14.01,2013-06-28 16:05:00,
2013-06-28 12:06:00,82.9,65.6,29.71,SSE,158,6.2,6.2,56,0.00,,---,0.00,VWS V14.01,2013-06-28 16:06:00,
2013-06-28 12:08:00,82.9,65.6,29.71,South,180,0.0,0.0,56,0.00,,---,0.00,VWS V14.01,2013-06-28 16:08:00,
2013-06-28 12:09:00,82.9,65.6,29.71,South,180,0.0,0.0,56,0.00,,---,0.00,VWS V14.01,2013-06-28 16:09:00,
2013-06-28 12:11:00,83.1,65.8,29.71,South,180,0.0,0.0,56,0.00,,---,0.00,VWS V14.01,2013-06-28 16:11:00,
2013-06-28 12:14:00,83.1,65.3,29.71,WSW,248,0.0,0.0,55,0.00,,---,0.00,VWS V14.01,2013-06-28 16:14:00,
2013-06-28 12:16:00,83.4,65.0,29.71,SSW,202,4.9,4.9,54,0.00,,---,0.00,VWS V14.01,2013-06-28 16:16:00,
2013-06-28 12:17:00,83.4,65.0,29.71,SSW,202,4.9,4.9,54,0.00,,---,0.00,VWS V14.01,2013-06-28 16:17:00,
2013-06-28 12:19:00,83.4,64.5,29.71,South,180,1.5,1.5,53,0.00,,---,0.00,VWS V14.01,2013-06-28 16:19:00,
2013-06-28 12:22:00,83.6,65.2,29.71,SSW,202,5.5,5.5,54,0.00,,---,0.00,VWS V14.01,2013-06-28 16:22:00,
2013-06-28 12:24:00,83.6,65.2,29.70,SSE,158,8.0,8.0,54,0.00,,---,0.00,VWS V14.01,2013-06-28 16:24:00,
2013-06-28 12:25:00,83.6,65.2,29.70,SSE,158,8.0,8.0,54,0.00,,---,0.00,VWS V14.01,2013-06-28 16:25:00,
2013-06-28 12:27:00,84.1,65.7,29.70,SSE,158,8.0,8.0,54,0.00,,---,0.00,VWS V14.01,2013-06-28 16:27:00,
2013-06-28 12:30:00,84.1,65.1,29.70,SSW,202,0.0,0.0,53,0.00,,---,0.00,VWS V14.01,2013-06-28 16:30:00,
2013-06-28 12:32:00,84.9,66.9,29.70,SSW,202,8.9,8.9,55,0.00,,---,0.00,VWS V14.01,2013-06-28 16:32:00,
2013-06-28 12:33:00,84.9,66.9,29.70,SSW,202,8.9,8.9,55,0.00,,---,0.00,VWS V14.01,2013-06-28 16:33:00,
2013-06-28 12:35:00,85.2,66.2,29.70,South,180,7.8,7.8,53,0.00,,---,0.00,VWS V14.01,2013-06-28 16:35:00,
2013-06-28 12:38:00,85.2,65.1,29.70,SW,225,0.0,0.0,51,0.00,,---,0.00,VWS V14.01,2013-06-28 16:38:00,
2013-06-28 12:39:00,85.0,64.9,29.70,SW,225,0.0,0.0,51,0.00,,---,0.00,VWS V14.01,2013-06-28 16:39:00,
2013-06-28 12:41:00,85.0,64.9,29.70,South,180,0.0,0.0,51,0.00,,---,0.00,VWS V14.01,2013-06-28 16:41:00,
2013-06-28 12:42:00,85.4,65.2,29.70,South,180,3.3,3.3,51,0.00,,---,0.00,VWS V14.01,2013-06-28 16:42:00,
2013-06-28 12:43:00,85.4,65.2,29.70,South,180,3.3,3.3,51,0.00,,---,0.00,VWS V14.01,2013-06-28 16:43:00,
2013-06-28 12:44:00,85.4,65.2,29.70,SW,225,0.0,3.3,51,0.00,,---,0.00,VWS V14.01,2013-06-28 16:44:00,
2013-06-28 12:46:00,85.4,64.1,29.70,West,270,0.0,0.0,49,0.00,,---,0.00,VWS V14.01,2013-06-28 16:46:00,
2013-06-28 12:48:00,85.4,64.7,29.70,SSE,158,4.4,4.4,50,0.00,,---,0.00,VWS V14.01,2013-06-28 16:48:00,
2013-06-28 12:49:00,85.4,64.7,29.71,SSE,158,4.4,4.4,50,0.00,,---,0.00,VWS V14.01,2013-06-28 16:49:00,
2013-06-28 12:50:00,85.6,64.8,29.71,West,270,0.0,4.4,50,0.00,,---,0.00,VWS V14.01,2013-06-28 16:50:00,
2013-06-28 12:52:00,85.6,63.7,29.71,SW,225,0.0,0.0,48,0.00,,---,0.00,VWS V14.01,2013-06-28 16:52:00,
2013-06-28 12:54:00,84.9,62.4,29.71,SSE,158,0.0,0.0,47,0.00,,---,0.00,VWS V14.01,2013-06-28 16:54:00,
2013-06-28 12:55:00,84.9,62.4,29.71,SSE,158,0.0,0.0,47,0.00,,---,0.00,VWS V14.01,2013-06-28 16:55:00,
2013-06-28 12:58:00,84.7,63.5,29.71,SSW,202,3.1,3.1,49,0.00,,---,0.00,VWS V14.01,2013-06-28 16:58:00,
2013-06-28 12:59:00,84.7,63.5,29.71,SSW,202,3.1,3.1,49,0.00,,---,0.00,VWS V14.01,2013-06-28 16:59:00,
2013-06-28 13:00:00,84.7,63.5,29.71,SSW,202,3.1,3.1,49,0.00,,---,0.00,VWS V14.01,2013-06-28 17:00:00,
2013-06-28 13:03:00,84.3,61.9,29.70,SSW,202,6.9,6.9,47,0.00,,---,0.00,VWS V14.01,2013-06-28 17:03:00,
2013-06-28 13:04:00,84.1,61.7,29.70,SW,225,0.0,0.0,47,0.00,,---,0.00,VWS V14.01,2013-06-28 17:04:00,
2013-06-28 13:05:00,84.1,61.7,29.70,SW,225,0.0,0.0,47,0.00,,---,0.00,VWS V14.01,2013-06-28 17:05:00,
2013-06-28 13:09:00,84.1,62.3,29.70,South,180,0.0,0.0,48,0.00,,---,0.00,VWS V14.01,2013-06-28 17:09:00,
2013-06-28 13:10:00,84.1,62.3,29.70,South,180,0.0,0.0,48,0.00,,---,0.00,VWS V14.01,2013-06-28 17:10:00,
2013-06-28 13:11:00,84.1,62.3,29.70,West,270,0.0,0.0,48,0.00,,---,0.00,VWS V14.01,2013-06-28 17:11:00,
2013-06-28 13:14:00,84.1,62.3,29.70,West,270,0.0,0.0,48,0.00,,---,0.00,VWS V14.01,2013-06-28 17:14:00,
2013-06-28 13:15:00,84.1,62.3,29.70,West,270,0.0,0.0,48,0.00,,---,0.00,VWS V14.01,2013-06-28 17:15:00,
2013-06-28 13:16:00,84.1,62.3,29.70,West,270,0.0,0.0,48,0.00,,---,0.00,VWS V14.01,2013-06-28 17:16:00,
2013-06-28 13:19:00,83.6,62.4,29.69,West,270,0.0,0.0,49,0.00,,---,0.00,VWS V14.01,2013-06-28 17:19:00,
2013-06-28 13:20:00,83.6,62.4,29.69,West,270,0.0,0.0,49,0.00,,---,0.00,VWS V14.01,2013-06-28 17:20:00,
2013-06-28 13:21:00,83.6,62.4,29.69,West,270,0.0,0.0,49,0.00,,---,0.00,VWS V14.01,2013-06-28 17:21:00,
2013-06-28 13:25:00,83.6,61.8,29.69,West,270,0.0,0.0,48,0.00,,---,0.00,VWS V14.01,2013-06-28 17:25:00,
2013-06-28 13:26:00,83.8,62.6,29.69,SSW,202,0.0,0.0,49,0.00,,---,0.00,VWS V14.01,2013-06-28 17:26:00,
2013-06-28 13:27:00,83.8,62.6,29.69,SSW,202,0.0,0.0,49,0.00,,---,0.00,VWS V14.01,2013-06-28 17:27:00,
2013-06-28 13:30:00,83.8,62.6,29.69,SSW,202,0.0,0.0,49,0.00,,---,0.00,VWS V14.01,2013-06-28 17:30:00,
2013-06-28 13:31:00,83.4,62.8,29.69,SSW,202,0.0,0.0,50,0.00,,---,0.00,VWS V14.01,2013-06-28 17:31:00,
2013-06-28 13:32:00,83.4,62.8,29.69,SSW,202,0.0,0.0,50,0.00,,---,0.00,VWS V14.01,2013-06-28 17:32:00,
2013-06-28 13:36:00,83.4,62.8,29.69,West,270,0.0,0.0,50,0.00,,---,0.00,VWS V14.01,2013-06-28 17:36:00,
2013-06-28 13:37:00,83.6,63.0,29.69,WSW,248,0.0,0.0,50,0.00,,---,0.00,VWS V14.01,2013-06-28 17:37:00,
2013-06-28 13:38:00,84.1,64.0,29.69,WSW,248,0.0,0.0,51,0.00,,---,0.00,VWS V14.01,2013-06-28 17:38:00,
2013-06-28 13:41:00,84.3,63.7,29.69,WSW,248,0.0,0.0,50,0.00,,---,0.00,VWS V14.01,2013-06-28 17:41:00,
2013-06-28 13:42:00,84.3,63.7,29.69,WSW,248,0.0,0.0,50,0.00,,---,0.00,VWS V14.01,2013-06-28 17:42:00,
2013-06-28 13:43:00,84.5,63.8,29.69,WSW,248,0.0,0.0,50,0.00,,---,0.00,VWS V14.01,2013-06-28 17:43:00,
2013-06-28 13:44:00,84.5,63.8,29.69,WSW,248,0.0,0.0,50,0.00,,---,0.00,VWS V14.01,2013-06-28 17:44:00,
2013-06-28 13:46:00,84.9,64.2,29.68,South,180,0.0,0.0,50,0.00,,---,0.00,VWS V14.01,2013-06-28 17:46:00,
2013-06-28 13:48:00,84.9,63.0,29.68,South,180,0.0,0.0,48,0.00,,---,0.00,VWS V14.01,2013-06-28 17:48:00,
2013-06-28 13:49:00,84.9,63.0,29.68,South,180,0.0,0.0,48,0.00,,---,0.00,VWS V14.01,2013-06-28 17:49:00,
2013-06-28 13:52:00,85.4,62.9,29.68,SSE,158,0.0,1.3,47,0.00,,---,0.00,VWS V14.01,2013-06-28 17:52:00,
2013-06-28 13:53:00,85.4,62.9,29.68,SSE,158,0.0,0.0,47,0.00,,---,0.00,VWS V14.01,2013-06-28 17:53:00,
2013-06-28 13:54:00,85.4,62.9,29.68,South,180,0.0,0.0,47,0.00,,---,0.00,VWS V14.01,2013-06-28 17:54:00,
2013-06-28 13:57:00,85.4,62.9,29.68,West,270,0.0,0.0,47,0.00,,---,0.00,VWS V14.01,2013-06-28 17:57:00,
2013-06-28 13:58:00,85.4,62.9,29.68,West,270,0.0,0.0,47,0.00,,---,0.00,VWS V14.01,2013-06-28 17:58:00,
2013-06-28 13:59:00,85.2,62.1,29.68,West,270,3.1,3.1,46,0.00,,---,0.00,VWS V14.01,2013-06-28 17:59:00,
2013-06-28 14:00:00,85.2,62.1,29.68,West,270,3.1,3.1,46,0.00,,---,0.00,VWS V14.01,2013-06-28 18:00:00,
2013-06-28 14:02:00,85.2,62.1,29.67,SSE,158,4.6,4.6,46,0.00,,---,0.00,VWS V14.01,2013-06-28 18:02:00,
2013-06-28 14:03:00,85.0,61.9,29.68,WNW,292,0.0,0.0,46,0.00,,---,0.00,VWS V14.01,2013-06-28 18:03:00,
2013-06-28 14:04:00,85.0,61.9,29.68,WNW,292,0.0,0.0,46,0.00,,---,0.00,VWS V14.01,2013-06-28 18:04:00,
2013-06-28 14:05:00,84.9,61.8,29.68,SSW,202,5.3,5.3,46,0.00,,---,0.00,VWS V14.01,2013-06-28 18:05:00,
2013-06-28 14:06:00,84.9,61.8,29.68,SSW,202,5.3,5.3,46,0.00,,---,0.00,VWS V14.01,2013-06-28 18:06:00,
2013-06-28 14:07:00,84.9,61.8,29.67,South,180,4.6,4.6,46,0.00,,---,0.00,VWS V14.01,2013-06-28 18:07:00,
2013-06-28 14:09:00,84.7,61.7,29.67,South,180,0.0,0.0,46,0.00,,---,0.00,VWS V14.01,2013-06-28 18:09:00,
2013-06-28 14:10:00,84.7,61.7,29.67,South,180,0.0,0.0,46,0.00,,---,0.00,VWS V14.01,2013-06-28 18:10:00,
2013-06-28 14:11:00,84.7,61.7,29.67,SSW,202,0.0,0.0,46,0.00,,---,0.00,VWS V14.01,2013-06-28 18:11:00,
2013-06-28 14:12:00,84.7,63.5,29.67,SSW,202,0.0,0.0,49,0.00,,---,0.00,VWS V14.01,2013-06-28 18:12:00,
2013-06-28 14:14:00,84.3,62.5,29.67,WSW,248,0.0,0.0,48,0.00,,---,0.00,VWS V14.01,2013-06-28 18:14:00,
2013-06-28 14:15:00,84.3,62.5,29.67,WSW,248,0.0,0.0,48,0.00,,---,0.00,VWS V14.01,2013-06-28 18:15:00,
2013-06-28 14:16:00,84.3,62.5,29.67,WSW,248,0.0,0.0,48,0.00,,---,0.00,VWS V14.01,2013-06-28 18:16:00,
2013-06-28 14:17:00,84.3,63.1,29.67,SSE,158,0.0,0.0,49,0.00,,---,0.00,VWS V14.01,2013-06-28 18:17:00,
2013-06-28 14:19:00,84.3,63.7,29.67,SSE,158,0.0,0.0,50,0.00,,---,0.00,VWS V14.01,2013-06-28 18:19:00,
2013-06-28 14:21:00,84.3,63.7,29.66,SSE,158,0.0,0.0,50,0.00,,---,0.00,VWS V14.01,2013-06-28 18:21:00,
2013-06-28 14:22:00,84.7,64.0,29.67,SSE,158,0.0,0.0,50,0.00,,---,0.00,VWS V14.01,2013-06-28 18:22:00,
2013-06-28 14:25:00,84.3,63.1,29.66,West,270,0.0,0.0,49,0.00,,---,0.00,VWS V14.01,2013-06-28 18:25:00,
2013-06-28 14:26:00,84.3,63.7,29.66,West,270,0.0,0.0,50,0.00,,---,0.00,VWS V14.01,2013-06-28 18:26:00,
2013-06-28 14:27:00,84.3,63.7,29.66,West,270,0.0,0.0,50,0.00,,---,0.00,VWS V14.01,2013-06-28 18:27:00,
2013-06-28 14:28:00,84.3,63.7,29.66,SW,225,0.0,0.0,50,0.00,,---,0.00,VWS V14.01,2013-06-28 18:28:00,
2013-06-28 14:30:00,84.3,63.7,29.65,SSE,158,0.0,0.0,50,0.00,,---,0.00,VWS V14.01,2013-06-28 18:30:00,
2013-06-28 14:31:00,84.3,63.7,29.66,SSE,158,0.0,0.0,50,0.00,,---,0.00,VWS V14.01,2013-06-28 18:31:00,
2013-06-28 14:32:00,84.3,63.7,29.66,SSE,158,0.0,0.0,50,0.00,,---,0.00,VWS V14.01,2013-06-28 18:32:00,
2013-06-28 14:34:00,84.5,63.8,29.66,South,180,0.0,0.0,50,0.00,,---,0.00,VWS V14.01,2013-06-28 18:34:00,
2013-06-28 14:35:00,84.5,63.8,29.66,South,180,0.0,0.0,50,0.00,,---,0.00,VWS V14.01,2013-06-28 18:35:00,
2013-06-28 14:37:00,84.5,63.3,29.66,South,180,0.0,0.0,49,0.00,,---,0.00,VWS V14.01,2013-06-28 18:37:00,
2013-06-28 14:38:00,84.5,63.3,29.65,South,180,0.0,0.0,49,0.00,,---,0.00,VWS V14.01,2013-06-28 18:38:00,
2013-06-28 14:39:00,84.5,63.8,29.65,South,180,0.0,0.0,50,0.00,,---,0.00,VWS V14.01,2013-06-28 18:39:00,
2013-06-28 14:40:00,84.5,63.8,29.65,South,180,0.0,0.0,50,0.00,,---,0.00,VWS V14.01,2013-06-28 18:40:00,
2013-06-28 14:42:00,84.7,64.0,29.65,SSW,202,0.0,0.0,50,0.00,,---,0.00,VWS V14.01,2013-06-28 18:42:00,
2013-06-28 14:43:00,84.7,64.0,29.65,SSW,202,0.0,0.0,50,0.00,,---,0.00,VWS V14.01,2013-06-28 18:43:00,
2013-06-28 14:45:00,84.7,64.0,29.65,South,180,0.0,0.0,50,0.00,,---,0.00,VWS V14.01,2013-06-28 18:45:00,
2013-06-28 14:48:00,84.7,63.5,29.65,South,180,0.0,0.0,49,0.00,,---,0.00,VWS V14.01,2013-06-28 18:48:00,
2013-06-28 14:50:00,84.7,63.5,29.64,South,180,0.0,0.0,49,0.00,,---,0.00,VWS V14.01,2013-06-28 18:50:00,
2013-06-28 14:51:00,84.7,63.5,29.64,South,180,0.0,0.0,49,0.00,,---,0.00,VWS V14.01,2013-06-28 18:51:00,
2013-06-28 14:53:00,84.3,62.5,29.64,SSW,202,0.0,0.0,48,0.00,,---,0.00,VWS V14.01,2013-06-28 18:53:00,
2013-06-28 14:54:00,84.3,62.5,29.64,SSW,202,0.0,0.0,48,0.00,,---,0.00,VWS V14.01,2013-06-28 18:54:00,
2013-06-28 14:56:00,84.3,63.1,29.64,SSW,202,0.0,0.0,49,0.00,,---,0.00,VWS V14.01,2013-06-28 18:56:00,
2013-06-28 14:59:00,84.3,62.5,29.64,West,270,0.0,0.0,48,0.00,,---,0.00,VWS V14.01,2013-06-28 18:59:00,
2013-06-28 15:00:00,84.1,62.3,29.64,South,180,0.0,0.0,48,0.00,,---,0.00,VWS V14.01,2013-06-28 19:00:00,
2013-06-28 15:01:00,84.1,62.3,29.64,South,180,0.0,0.0,48,0.00,,---,0.00,VWS V14.01,2013-06-28 19:01:00,
2013-06-28 15:02:00,84.1,62.3,29.64,South,180,0.0,0.0,48,0.00,,---,0.00,VWS V14.01,2013-06-28 19:02:00,
2013-06-28 15:04:00,84.1,62.3,29.63,West,270,0.0,0.0,48,0.00,,---,0.00,VWS V14.01,2013-06-28 19:04:00,
2013-06-28 15:05:00,84.1,62.3,29.63,West,270,0.0,0.0,48,0.00,,---,0.00,VWS V14.01,2013-06-28 19:05:00,
2013-06-28 15:07:00,84.0,62.8,29.63,West,270,0.0,0.0,49,0.00,,---,0.00,VWS V14.01,2013-06-28 19:07:00,
2013-06-28 15:08:00,84.0,62.8,29.63,West,270,0.0,0.0,49,0.00,,---,0.00,VWS V14.01,2013-06-28 19:08:00,
2013-06-28 15:10:00,84.0,62.8,29.63,West,270,0.0,0.0,49,0.00,,---,0.00,VWS V14.01,2013-06-28 19:10:00,
2013-06-28 15:12:00,83.4,62.3,29.63,West,270,0.0,0.0,49,0.00,,---,0.00,VWS V14.01,2013-06-28 19:12:00,
2013-06-28 15:13:00,83.4,62.3,29.63,West,270,0.0,0.0,49,0.00,,---,0.00,VWS V14.01,2013-06-28 19:13:00,
2013-06-28 15:15:00,83.4,62.3,29.64,SW,225,0.0,0.0,49,0.00,,---,0.00,VWS V14.01,2013-06-28 19:15:00,
2013-06-28 15:17:00,83.4,62.3,29.64,WSW,248,0.0,0.0,49,0.00,,---,0.00,VWS V14.01,2013-06-28 19:17:00,
2013-06-28 15:18:00,83.4,62.3,29.64,WSW,248,0.0,0.0,49,0.00,,---,0.00,VWS V14.01,2013-06-28 19:18:00,
2013-06-28 15:20:00,83.4,62.8,29.63,SSW,202,0.0,0.0,50,0.00,,---,0.00,VWS V14.01,2013-06-28 19:20:00,
2013-06-28 15:21:00,83.4,62.8,29.63,SSW,202,0.0,0.0,50,0.00,,---,0.00,VWS V14.01,2013-06-28 19:21:00,
2013-06-28 15:23:00,83.4,62.8,29.63,SW,225,0.0,0.0,50,0.00,,---,0.00,VWS V14.01,2013-06-28 19:23:00,
2013-06-28 15:25:00,83.4,62.8,29.63,SSW,202,0.0,0.0,50,0.00,,---,0.00,VWS V14.01,2013-06-28 19:25:00,
2013-06-28 15:26:00,83.4,62.8,29.63,SSW,202,0.0,0.0,50,0.00,,---,0.00,VWS V14.01,2013-06-28 19:26:00,
2013-06-28 15:28:00,83.8,63.8,29.63,SSW,202,0.0,0.0,51,0.00,,---,0.00,VWS V14.01,2013-06-28 19:28:00,
2013-06-28 15:29:00,83.8,63.8,29.63,SSW,202,0.0,0.0,51,0.00,,---,0.00,VWS V14.01,2013-06-28 19:29:00,
2013-06-28 15:30:00,84.1,64.6,29.63,SSW,202,0.0,0.0,52,0.00,,---,0.00,VWS V14.01,2013-06-28 19:30:00,
2013-06-28 15:32:00,84.1,64.6,29.63,SSW,202,0.0,0.0,52,0.00,,---,0.00,VWS V14.01,2013-06-28 19:32:00,
2013-06-28 15:34:00,84.1,64.0,29.63,WNW,292,0.0,0.0,51,0.00,,---,0.00,VWS V14.01,2013-06-28 19:34:00,
2013-06-28 15:35:00,84.1,64.0,29.63,WNW,292,0.0,0.0,51,0.00,,---,0.00,VWS V14.01,2013-06-28 19:35:00,
2013-06-28 15:36:00,84.1,63.5,29.63,WSW,248,0.0,0.0,50,0.00,,---,0.00,VWS V14.01,2013-06-28 19:36:00,
2013-06-28 15:37:00,84.1,63.5,29.63,WSW,248,0.0,0.0,50,0.00,,---,0.00,VWS V14.01,2013-06-28 19:37:00,
2013-06-28 15:40:00,84.1,62.9,29.63,WSW,248,0.0,0.0,49,0.00,,---,0.00,VWS V14.01,2013-06-28 19:40:00,
2013-06-28 15:41:00,84.1,62.9,29.63,WSW,248,0.0,0.0,49,0.00,,---,0.00,VWS V14.01,2013-06-28 19:41:00,
2013-06-28 15:42:00,84.1,62.9,29.63,WSW,248,0.0,0.0,49,0.00,,---,0.00,VWS V14.01,2013-06-28 19:42:00,
2013-06-28 15:45:00,84.5,63.8,29.63,WSW,248,0.0,0.0,50,0.00,,---,0.00,VWS V14.01,2013-06-28 19:45:00,
2013-06-28 15:46:00,84.5,63.8,29.63,WSW,248,0.0,0.0,50,0.00,,---,0.00,VWS V14.01,2013-06-28 19:46:00,
2013-06-28 15:47:00,84.7,64.0,29.63,West,270,0.0,0.0,50,0.00,,---,0.00,VWS V14.01,2013-06-28 19:47:00,
2013-06-28 15:48:00,84.7,64.0,29.63,West,270,0.0,0.0,50,0.00,,---,0.00,VWS V14.01,2013-06-28 19:48:00,
2013-06-28 15:50:00,84.1,62.9,29.62,West,270,1.7,1.7,49,0.00,,---,0.00,VWS V14.01,2013-06-28 19:50:00,
2013-06-28 15:51:00,84.1,62.9,29.62,West,270,1.7,1.7,49,0.00,,---,0.00,VWS V14.01,2013-06-28 19:51:00,
2013-06-28 15:52:00,84.1,62.9,29.62,North,0,0.0,0.0,49,0.00,,---,0.00,VWS V14.01,2013-06-28 19:52:00,
2013-06-28 15:53:00,84.1,62.3,29.62,SW,225,0.0,0.0,48,0.00,,---,0.00,VWS V14.01,2013-06-28 19:53:00,
2013-06-28 15:55:00,84.0,62.8,29.62,WSW,248,0.0,0.0,49,0.00,,---,0.00,VWS V14.01,2013-06-28 19:55:00,
2013-06-28 15:56:00,84.0,62.8,29.62,WSW,248,0.0,0.0,49,0.00,,---,0.00,VWS V14.01,2013-06-28 19:56:00,
2013-06-28 15:58:00,83.6,63.0,29.62,WSW,248,0.0,0.0,50,0.00,,---,0.00,VWS V14.01,2013-06-28 19:58:00,
2013-06-28 15:59:00,83.4,62.8,29.62,WSW,248,4.6,4.6,50,0.00,,---,0.00,VWS V14.01,2013-06-28 19:59:00,
2013-06-28 16:01:00,83.4,62.8,29.62,WSW,248,4.6,4.6,50,0.00,,---,0.00,VWS V14.01,2013-06-28 20:01:00,
2013-06-28 16:02:00,83.2,62.7,29.62,WSW,248,0.0,4.6,50,0.00,,---,0.00,VWS V14.01,2013-06-28 20:02:00,
2013-06-28 16:03:00,83.2,62.7,29.62,WSW,248,0.0,0.0,50,0.00,,---,0.00,VWS V14.01,2013-06-28 20:03:00,
2013-06-28 16:04:00,83.2,62.7,29.62,WSW,248,0.0,0.0,50,0.00,,---,0.00,VWS V14.01,2013-06-28 20:04:00,
2013-06-28 16:07:00,82.9,63.5,29.62,WSW,248,0.0,0.0,52,0.00,,---,0.00,VWS V14.01,2013-06-28 20:07:00,
2013-06-28 16:08:00,82.9,63.5,29.62,WSW,248,0.0,0.0,52,0.00,,---,0.00,VWS V14.01,2013-06-28 20:08:00,
2013-06-28 16:10:00,82.7,63.3,29.62,WSW,248,0.0,0.0,52,0.00,,---,0.00,VWS V14.01,2013-06-28 20:10:00,
2013-06-28 16:12:00,82.9,63.5,29.62,SSW,202,0.0,0.0,52,0.00,,---,0.00,VWS V14.01,2013-06-28 20:12:00,
2013-06-28 16:13:00,82.7,63.3,29.62,SSW,202,0.0,0.0,52,0.00,,---,0.00,VWS V14.01,2013-06-28 20:13:00,
2013-06-28 16:15:00,82.5,63.7,29.62,SSW,202,0.0,0.0,53,0.00,,---,0.00,VWS V14.01,2013-06-28 20:15:00,
2013-06-28 16:17:00,82.5,63.7,29.62,SSW,202,0.0,0.0,53,0.00,,---,0.00,VWS V14.01,2013-06-28 20:17:00,
2013-06-28 16:19:00,81.8,62.5,29.62,South,180,2.6,5.1,52,0.00,,---,0.00,VWS V14.01,2013-06-28 20:19:00,
2013-06-28 16:20:00,81.8,62.5,29.62,South,180,2.6,2.6,52,0.00,,---,0.00,VWS V14.01,2013-06-28 20:20:00,
2013-06-28 16:22:00,81.3,62.0,29.62,South,180,0.0,0.0,52,0.00,,---,0.00,VWS V14.01,2013-06-28 20:22:00,
2013-06-28 16:24:00,81.3,62.0,29.62,South,180,0.0,0.0,52,0.00,,---,0.00,VWS V14.01,2013-06-28 20:24:00,
2013-06-28 16:25:00,81.3,62.0,29.62,South,180,0.0,0.0,52,0.00,,---,0.00,VWS V14.01,2013-06-28 20:25:00,
2013-06-28 16:27:00,81.4,63.2,29.62,South,180,0.0,0.0,54,0.00,,---,0.00,VWS V14.01,2013-06-28 20:27:00,
2013-06-28 16:28:00,81.4,63.2,29.62,South,180,0.0,0.0,54,0.00,,---,0.00,VWS V14.01,2013-06-28 20:28:00,
2013-06-28 16:29:00,81.8,64.1,29.62,South,180,0.0,0.0,55,0.00,,---,0.00,VWS V14.01,2013-06-28 20:29:00,
2013-06-28 16:30:00,81.8,64.1,29.62,South,180,0.0,0.0,55,0.00,,---,0.00,VWS V14.01,2013-06-28 20:30:00,
2013-06-28 16:32:00,82.5,64.7,29.61,South,180,0.0,0.0,55,0.00,,---,0.00,VWS V14.01,2013-06-28 20:32:00,
2013-06-28 16:33:00,82.5,64.7,29.62,WSW,248,0.0,0.0,55,0.00,,---,0.00,VWS V14.01,2013-06-28 20:33:00,
2013-06-28 16:34:00,82.5,64.7,29.62,WSW,248,0.0,0.0,55,0.00,,---,0.00,VWS V14.01,2013-06-28 20:34:00,
2013-06-28 16:36:00,82.5,64.7,29.62,SW,225,0.2,0.2,55,0.00,,---,0.00,VWS V14.01,2013-06-28 20:36:00,
2013-06-28 16:37:00,82.5,64.2,29.61,SW,225,0.2,0.2,54,0.00,,---,0.00,VWS V14.01,2013-06-28 20:37:00,
2013-06-28 16:39:00,82.5,64.2,29.61,SSE,158,4.2,4.2,54,0.00,,---,0.00,VWS V14.01,2013-06-28 20:39:00,
2013-06-28 16:41:00,82.3,63.5,29.61,West,270,0.0,4.2,53,0.00,,---,0.00,VWS V14.01,2013-06-28 20:41:00,
2013-06-28 16:42:00,82.3,63.5,29.61,West,270,0.0,0.0,53,0.00,,---,0.00,VWS V14.01,2013-06-28 20:42:00,
2013-06-28 16:43:00,82.2,63.4,29.62,West,270,0.0,0.0,53,0.00,,---,0.00,VWS V14.01,2013-06-28 20:43:00,
2013-06-28 16:44:00,82.2,63.4,29.61,West,270,0.0,0.0,53,0.00,,---,0.00,VWS V14.01,2013-06-28 20:44:00,
2013-06-28 16:45:00,82.0,63.2,29.62,SW,225,0.0,0.0,53,0.00,,---,0.00,VWS V14.01,2013-06-28 20:45:00,
2013-06-28 16:46:00,81.8,63.0,29.62,WSW,248,0.0,0.0,53,0.00,,---,0.00,VWS V14.01,2013-06-28 20:46:00,
2013-06-28 16:48:00,81.8,63.0,29.62,WSW,248,0.0,0.0,53,0.00,,---,0.00,VWS V14.01,2013-06-28 20:48:00,
2013-06-28 16:49:00,81.6,62.8,29.61,WSW,248,0.0,0.0,53,0.00,,---,0.00,VWS V14.01,2013-06-28 20:49:00,
2013-06-28 16:51:00,81.6,62.8,29.61,West,270,0.0,0.0,53,0.00,,---,0.00,VWS V14.01,2013-06-28 20:51:00,
2013-06-28 16:52:00,81.6,62.8,29.61,West,270,0.0,0.0,53,0.00,,---,0.00,VWS V14.01,2013-06-28 20:52:00,
2013-06-28 16:54:00,81.6,63.4,29.61,SSE,158,0.0,0.0,54,0.00,,---,0.00,VWS V14.01,2013-06-28 20:54:00,
2013-06-28 16:57:00,81.8,63.5,29.61,SSE,158,0.0,0.0,54,0.00,,---,0.00,VWS V14.01,2013-06-28 20:57:00,
2013-06-28 16:59:00,81.6,63.4,29.61,SSE,158,0.0,0.0,54,0.00,,---,0.00,VWS V14.01,2013-06-28 20:59:00,
2013-06-28 17:00:00,81.6,63.4,29.61,SSE,158,0.0,0.0,54,0.00,,---,0.00,VWS V14.01,2013-06-28 21:00:00,
2013-06-28 17:02:00,81.6,63.4,29.61,SSE,158,0.0,0.0,54,0.00,,---,0.00,VWS V14.01,2013-06-28 21:02:00,
2013-06-28 17:03:00,81.6,63.4,29.61,SSE,158,0.0,0.0,54,0.00,,---,0.00,VWS V14.01,2013-06-28 21:03:00,
2013-06-28 17:04:00,81.6,63.4,29.61,SSE,158,0.0,0.0,54,0.00,,---,0.00,VWS V14.01,2013-06-28 21:04:00,
2013-06-28 17:05:00,81.4,63.2,29.61,SSE,158,0.0,0.0,54,0.00,,---,0.00,VWS V14.01,2013-06-28 21:05:00,
2013-06-28 17:08:00,81.4,63.2,29.61,SSE,158,0.0,0.0,54,0.00,,---,0.00,VWS V14.01,2013-06-28 21:08:00,
2013-06-28 17:09:00,81.3,63.6,29.61,SSE,158,0.0,0.0,55,0.00,,---,0.00,VWS V14.01,2013-06-28 21:09:00,
2013-06-28 17:10:00,81.3,63.6,29.61,SSE,158,0.0,0.0,55,0.00,,---,0.00,VWS V14.01,2013-06-28 21:10:00,
2013-06-28 17:13:00,81.3,63.6,29.61,SSE,158,0.0,0.0,55,0.00,,---,0.00,VWS V14.01,2013-06-28 21:13:00,
2013-06-28 17:15:00,80.9,63.2,29.62,SSE,158,0.0,0.0,55,0.00,,---,0.00,VWS V14.01,2013-06-28 21:15:00,
2013-06-28 17:18:00,80.9,64.2,29.62,SSE,158,5.3,5.3,57,0.00,,---,0.00,VWS V14.01,2013-06-28 21:18:00,
2013-06-28 17:19:00,80.9,64.2,29.62,SSE,158,5.3,5.3,57,0.00,,---,0.00,VWS V14.01,2013-06-28 21:19:00,
2013-06-28 17:20:00,80.7,64.6,29.62,South,180,0.0,5.3,58,0.00,,---,0.00,VWS V14.01,2013-06-28 21:20:00,
2013-06-28 17:21:00,80.7,64.6,29.61,South,180,0.0,0.0,58,0.00,,---,0.00,VWS V14.01,2013-06-28 21:21:00,
2013-06-28 17:23:00,80.5,64.4,29.61,SSW,202,0.0,0.0,58,0.00,,---,0.00,VWS V14.01,2013-06-28 21:23:00,
2013-06-28 17:25:00,80.5,64.4,29.62,SSW,202,2.2,2.2,58,0.00,,---,0.00,VWS V14.01,2013-06-28 21:25:00,
2013-06-28 17:26:00,80.5,64.9,29.61,SSW,202,2.2,2.2,59,0.00,,---,0.00,VWS V14.01,2013-06-28 21:26:00,
2013-06-28 17:28:00,80.0,64.4,29.61,SSW,202,0.0,0.0,59,0.00,,---,0.00,VWS V14.01,2013-06-28 21:28:00,
2013-06-28 17:30:00,79.8,64.2,29.62,WSW,248,0.0,0.0,59,0.00,,---,0.00,VWS V14.01,2013-06-28 21:30:00,
2013-06-28 17:31:00,79.8,64.2,29.61,WSW,248,0.0,0.0,59,0.00,,---,0.00,VWS V14.01,2013-06-28 21:31:00,
2013-06-28 17:33:00,79.8,64.7,29.61,WSW,248,0.0,0.0,60,0.00,,---,0.00,VWS V14.01,2013-06-28 21:33:00,
2013-06-28 17:34:00,79.8,64.7,29.61,WSW,248,0.0,0.0,60,0.00,,---,0.00,VWS V14.01,2013-06-28 21:34:00,
2013-06-28 17:35:00,80.0,65.4,29.62,WSW,248,0.0,0.0,61,0.00,,---,0.00,VWS V14.01,2013-06-28 21:35:00,
2013-06-28 17:36:00,80.0,65.4,29.62,WSW,248,0.0,0.0,61,0.00,,---,0.00,VWS V14.01,2013-06-28 21:36:00,
2013-06-28 17:37:00,80.0,65.4,29.62,WSW,248,0.0,0.0,61,0.00,,---,0.00,VWS V14.01,2013-06-28 21:37:00,
2013-06-28 17:38:00,80.7,66.5,29.61,WSW,248,0.0,0.0,62,0.00,,---,0.00,VWS V14.01,2013-06-28 21:38:00,
2013-06-28 17:39:00,80.7,66.5,29.61,WSW,248,0.0,0.0,62,0.00,,---,0.00,VWS V14.01,2013-06-28 21:39:00,
2013-06-28 17:40:00,81.3,67.1,29.61,SW,225,0.0,0.0,62,0.00,,---,0.00,VWS V14.01,2013-06-28 21:40:00,
2013-06-28 17:41:00,81.3,67.1,29.61,SW,225,0.0,0.0,62,0.00,,---,0.00,VWS V14.01,2013-06-28 21:41:00,
2013-06-28 17:42:00,81.3,67.1,29.61,SW,225,0.0,0.0,62,0.00,,---,0.00,VWS V14.01,2013-06-28 21:42:00,
2013-06-28 17:43:00,82.0,67.7,29.61,SW,225,0.0,0.0,62,0.00,,---,0.00,VWS V14.01,2013-06-28 21:43:00,
2013-06-28 17:44:00,82.0,67.7,29.61,SW,225,0.0,0.0,62,0.00,,---,0.00,VWS V14.01,2013-06-28 21:44:00,
2013-06-28 17:45:00,82.5,67.2,29.62,SSW,202,0.0,0.0,60,0.00,,---,0.00,VWS V14.01,2013-06-28 21:45:00,
2013-06-28 17:47:00,82.7,67.4,29.61,West,270,0.0,0.0,60,0.00,,---,0.00,VWS V14.01,2013-06-28 21:47:00,
2013-06-28 17:48:00,82.7,66.9,29.61,West,270,0.0,0.0,59,0.00,,---,0.00,VWS V14.01,2013-06-28 21:48:00,
2013-06-28 17:49:00,82.9,67.1,29.61,West,270,0.0,0.0,59,0.00,,---,0.00,VWS V14.01,2013-06-28 21:49:00,
2013-06-28 17:51:00,83.4,67.1,29.61,South,180,5.1,5.1,58,0.00,,---,0.00,VWS V14.01,2013-06-28 21:51:00,
2013-06-28 17:52:00,83.4,66.1,29.62,SSW,202,0.0,5.1,56,0.00,,---,0.00,VWS V14.01,2013-06-28 21:52:00,
2013-06-28 17:53:00,83.4,66.1,29.61,SSW,202,0.0,5.1,56,0.00,,---,0.00,VWS V14.01,2013-06-28 21:53:00,
2013-06-28 17:54:00,83.4,66.1,29.61,SSW,202,0.0,0.0,56,0.00,,---,0.00,VWS V14.01,2013-06-28 21:54:00,
2013-06-28 17:56:00,83.6,65.7,29.61,SSW,202,0.0,0.0,55,0.00,,---,0.00,VWS V14.01,2013-06-28 21:56:00,
2013-06-28 17:57:00,83.2,65.4,29.61,SW,225,0.0,0.0,55,0.00,,---,0.00,VWS V14.01,2013-06-28 21:57:00,
2013-06-28 17:58:00,83.2,65.4,29.61,SW,225,0.0,0.0,55,0.00,,---,0.00,VWS V14.01,2013-06-28 21:58:00,
2013-06-28 17:59:00,83.2,65.4,29.61,SW,225,0.0,0.0,55,0.00,,---,0.00,VWS V14.01,2013-06-28 21:59:00,
2013-06-28 18:01:00,83.1,65.3,29.61,SW,225,0.0,0.0,55,0.00,,---,0.00,VWS V14.01,2013-06-28 22:01:00,
2013-06-28 18:03:00,83.6,65.7,29.61,SW,225,0.0,0.0,55,0.00,,---,0.00,VWS V14.01,2013-06-28 22:03:00,
2013-06-28 18:04:00,83.6,65.7,29.61,SW,225,0.0,0.0,55,0.00,,---,0.00,VWS V14.01,2013-06-28 22:04:00,
2013-06-28 18:05:00,83.6,65.7,29.61,SW,225,0.0,0.0,55,0.00,,---,0.00,VWS V14.01,2013-06-28 22:05:00,
2013-06-28 18:06:00,83.6,65.7,29.61,South,180,0.0,0.0,55,0.00,,---,0.00,VWS V14.01,2013-06-28 22:06:00,
2013-06-28 18:08:00,83.6,66.3,29.61,South,180,0.0,0.0,56,0.00,,---,0.00,VWS V14.01,2013-06-28 22:08:00,
2013-06-28 18:09:00,83.2,66.4,29.61,South,180,0.0,0.0,57,0.00,,---,0.00,VWS V14.01,2013-06-28 22:09:00,
2013-06-28 18:10:00,83.2,66.4,29.62,South,180,0.0,0.0,57,0.00,,---,0.00,VWS V14.01,2013-06-28 22:10:00,
2013-06-28 18:12:00,83.1,66.3,29.62,SSE,158,0.0,0.0,57,0.00,,---,0.00,VWS V14.01,2013-06-28 22:12:00,
2013-06-28 18:13:00,83.1,66.3,29.61,SSE,158,0.0,0.0,57,0.00,,---,0.00,VWS V14.01,2013-06-28 22:13:00,
2013-06-28 18:14:00,82.9,66.1,29.62,SSE,158,0.0,0.0,57,0.00,,---,0.00,VWS V14.01,2013-06-28 22:14:00,
2013-06-28 18:15:00,82.9,66.1,29.62,SSE,158,0.0,0.0,57,0.00,,---,0.00,VWS V14.01,2013-06-28 22:15:00,
2013-06-28 18:17:00,82.5,66.2,29.61,SSE,158,0.0,0.0,58,0.00,,---,0.00,VWS V14.01,2013-06-28 22:17:00,
2013-06-28 18:19:00,82.3,66.1,29.61,SSE,158,1.5,1.5,58,0.00,,---,0.00,VWS V14.01,2013-06-28 22:19:00,
2013-06-28 18:20:00,82.3,66.1,29.61,SSE,158,0.0,1.5,58,0.00,,---,0.00,VWS V14.01,2013-06-28 22:20:00,
2013-06-28 18:21:00,82.3,66.1,29.61,SSE,158,0.0,1.5,58,0.00,,---,0.00,VWS V14.01,2013-06-28 22:21:00,
2013-06-28 18:22:00,82.2,66.5,29.61,SSE,158,0.0,0.0,59,0.00,,---,0.00,VWS V14.01,2013-06-28 22:22:00,
2013-06-28 18:24:00,82.2,66.5,29.61,SSE,158,0.0,0.0,59,0.00,,---,0.00,VWS V14.01,2013-06-28 22:24:00,
2013-06-28 18:25:00,81.8,65.6,29.61,SW,225,0.0,0.0,58,0.00,,---,0.00,VWS V14.01,2013-06-28 22:25:00,
2013-06-28 18:26:00,81.8,65.6,29.61,SW,225,0.0,0.0,58,0.00,,---,0.00,VWS V14.01,2013-06-28 22:26:00,
2013-06-28 18:28:00,81.8,66.1,29.61,SW,225,0.0,0.0,59,0.00,,---,0.00,VWS V14.01,2013-06-28 22:28:00,
2013-06-28 18:29:00,81.6,66.4,29.62,SW,225,0.0,0.0,60,0.00,,---,0.00,VWS V14.01,2013-06-28 22:29:00,
2013-06-28 18:31:00,81.6,66.4,29.61,SW,225,0.0,0.0,60,0.00,,---,0.00,VWS V14.01,2013-06-28 22:31:00,
2013-06-28 18:32:00,81.4,66.2,29.61,SW,225,0.0,0.0,60,0.00,,---,0.00,VWS V14.01,2013-06-28 22:32:00,
2013-06-28 18:33:00,81.4,66.2,29.61,SW,225,0.0,0.0,60,0.00,,---,0.00,VWS V14.01,2013-06-28 22:33:00,
2013-06-28 18:34:00,81.6,66.4,29.62,SW,225,0.0,0.0,60,0.00,,---,0.00,VWS V14.01,2013-06-28 22:34:00,
2013-06-28 18:35:00,81.6,66.4,29.62,SW,225,0.0,0.0,60,0.00,,---,0.00,VWS V14.01,2013-06-28 22:35:00,
2013-06-28 18:36:00,81.6,65.9,29.62,SW,225,0.0,0.0,59,0.00,,---,0.00,VWS V14.01,2013-06-28 22:36:00,
2013-06-28 18:37:00,81.6,65.9,29.62,SW,225,0.0,0.0,59,0.00,,---,0.00,VWS V14.01,2013-06-28 22:37:00,
2013-06-28 18:39:00,81.4,65.2,29.62,SW,225,0.0,0.0,58,0.00,,---,0.00,VWS V14.01,2013-06-28 22:39:00,
2013-06-28 18:40:00,81.4,65.2,29.62,SW,225,0.0,0.0,58,0.00,,---,0.00,VWS V14.01,2013-06-28 22:40:00,
2013-06-28 18:41:00,81.3,65.6,29.61,SW,225,0.0,0.0,59,0.00,,---,0.00,VWS V14.01,2013-06-28 22:41:00,
2013-06-28 18:42:00,81.3,65.6,29.61,SW,225,0.0,0.0,59,0.00,,---,0.00,VWS V14.01,2013-06-28 22:42:00,
2013-06-28 18:44:00,81.1,64.9,29.61,SW,225,0.0,0.0,58,0.00,,---,0.00,VWS V14.01,2013-06-28 22:44:00,
2013-06-28 18:45:00,81.1,64.9,29.61,SW,225,0.0,0.0,58,0.00,,---,0.00,VWS V14.01,2013-06-28 22:45:00,
2013-06-28 18:46:00,81.1,65.4,29.61,West,270,0.0,0.0,59,0.00,,---,0.00,VWS V14.01,2013-06-28 22:46:00,
2013-06-28 18:47:00,81.1,65.4,29.61,West,270,0.0,0.0,59,0.00,,---,0.00,VWS V14.01,2013-06-28 22:47:00,
2013-06-28 18:50:00,81.1,64.4,29.62,SW,225,0.0,0.0,57,0.00,,---,0.00,VWS V14.01,2013-06-28 22:50:00,
2013-06-28 18:51:00,81.1,64.4,29.62,SW,225,0.0,0.0,57,0.00,,---,0.00,VWS V14.01,2013-06-28 22:51:00,
2013-06-28 18:52:00,81.1,64.4,29.62,SW,225,0.0,0.0,57,0.00,,---,0.00,VWS V14.01,2013-06-28 22:52:00,
2013-06-28 18:53:00,81.1,64.4,29.61,SW,225,0.0,0.0,57,0.00,,---,0.00,VWS V14.01,2013-06-28 22:53:00,
2013-06-28 18:55:00,80.7,64.1,29.61,WNW,292,0.0,0.0,57,0.00,,---,0.00,VWS V14.01,2013-06-28 22:55:00,
2013-06-28 18:56:00,80.5,63.4,29.61,WNW,292,0.0,0.0,56,0.00,,---,0.00,VWS V14.01,2013-06-28 22:56:00,
2013-06-28 18:57:00,80.5,63.4,29.61,WNW,292,0.0,0.0,56,0.00,,---,0.00,VWS V14.01,2013-06-28 22:57:00,
2013-06-28 18:58:00,80.5,62.9,29.61,West,270,0.0,0.0,55,0.00,,---,0.00,VWS V14.01,2013-06-28 22:58:00,
2013-06-28 19:00:00,80.5,62.9,29.61,West,270,0.0,0.0,55,0.00,,---,0.00,VWS V14.01,2013-06-28 23:00:00,
2013-06-28 19:01:00,80.7,62.5,29.61,WSW,248,0.0,0.0,54,0.00,,---,0.00,VWS V14.01,2013-06-28 23:01:00,
2013-06-28 19:02:00,80.7,62.5,29.61,WSW,248,0.0,0.0,54,0.00,,---,0.00,VWS V14.01,2013-06-28 23:02:00,
2013-06-28 19:03:00,80.7,62.5,29.61,WSW,248,0.0,0.0,54,0.00,,---,0.00,VWS V14.01,2013-06-28 23:03:00,
2013-06-28 19:05:00,80.7,62.0,29.61,WSW,248,0.0,0.0,53,0.00,,---,0.00,VWS V14.01,2013-06-28 23:05:00,
2013-06-28 19:06:00,80.7,62.0,29.61,WSW,248,0.0,0.0,53,0.00,,---,0.00,VWS V14.01,2013-06-28 23:06:00,
2013-06-28 19:08:00,80.5,61.8,29.61,WSW,248,0.0,0.0,53,0.00,,---,0.00,VWS V14.01,2013-06-28 23:08:00,
2013-06-28 19:11:00,80.9,61.6,29.62,WSW,248,0.0,0.0,52,0.00,,---,0.00,VWS V14.01,2013-06-28 23:11:00,
2013-06-28 19:12:00,80.9,61.1,29.62,WSW,248,0.0,0.0,51,0.00,,---,0.00,VWS V14.01,2013-06-28 23:12:00,
2013-06-28 19:13:00,80.9,61.1,29.62,WSW,248,0.0,0.0,51,0.00,,---,0.00,VWS V14.01,2013-06-28 23:13:00,
2013-06-28 19:15:00,81.1,61.3,29.62,WSW,248,0.0,0.0,51,0.00,,---,0.00,VWS V14.01,2013-06-28 23:15:00,
2013-06-28 19:16:00,81.1,61.3,29.62,WSW,248,0.0,0.0,51,0.00,,---,0.00,VWS V14.01,2013-06-28 23:16:00,
2013-06-28 19:17:00,81.3,61.5,29.62,WSW,248,0.0,0.0,51,0.00,,---,0.00,VWS V14.01,2013-06-28 23:17:00,
2013-06-28 19:18:00,81.4,61.0,29.62,WSW,248,0.0,0.0,50,0.00,,---,0.00,VWS V14.01,2013-06-28 23:18:00,
2013-06-28 19:19:00,81.4,61.0,29.62,WSW,248,0.0,0.0,50,0.00,,---,0.00,VWS V14.01,2013-06-28 23:19:00,
2013-06-28 19:20:00,81.4,61.0,29.62,WSW,248,0.0,0.0,50,0.00,,---,0.00,VWS V14.01,2013-06-28 23:20:00,
2013-06-28 19:21:00,81.6,61.2,29.62,WSW,248,0.0,0.0,50,0.00,,---,0.00,VWS V14.01,2013-06-28 23:21:00,
2013-06-28 19:23:00,81.8,60.2,29.62,WSW,248,0.0,0.0,48,0.00,,---,0.00,VWS V14.01,2013-06-28 23:23:00,
2013-06-28 19:24:00,81.8,60.2,29.62,WSW,248,0.0,0.0,48,0.00,,---,0.00,VWS V14.01,2013-06-28 23:24:00,
2013-06-28 19:26:00,81.8,59.6,29.62,WSW,248,0.0,0.0,47,0.00,,---,0.00,VWS V14.01,2013-06-28 23:26:00,
2013-06-28 19:27:00,81.8,59.0,29.62,SSW,202,0.0,0.0,46,0.00,,---,0.00,VWS V14.01,2013-06-28 23:27:00,
2013-06-28 19:28:00,81.8,59.0,29.62,SSW,202,0.0,0.0,46,0.00,,---,0.00,VWS V14.01,2013-06-28 23:28:00,
2013-06-28 19:29:00,81.8,59.0,29.62,SSW,202,0.0,0.0,46,0.00,,---,0.00,VWS V14.01,2013-06-28 23:29:00,
2013-06-28 19:31:00,81.6,58.2,29.62,SSW,202,0.0,0.0,45,0.00,,---,0.00,VWS V14.01,2013-06-28 23:31:00,
2013-06-28 19:32:00,81.6,58.8,29.62,SSW,202,0.0,0.0,46,0.00,,---,0.00,VWS V14.01,2013-06-28 23:32:00,
2013-06-28 19:33:00,81.6,58.8,29.62,SSW,202,0.0,0.0,46,0.00,,---,0.00,VWS V14.01,2013-06-28 23:33:00,
2013-06-28 19:34:00,81.6,58.8,29.62,SSW,202,0.0,0.0,46,0.00,,---,0.00,VWS V14.01,2013-06-28 23:34:00,
2013-06-28 19:36:00,81.4,58.7,29.62,SSW,202,0.0,0.0,46,0.00,,---,0.00,VWS V14.01,2013-06-28 23:36:00,
2013-06-28 19:38:00,81.3,58.0,29.62,SSW,202,0.0,0.0,45,0.00,,---,0.00,VWS V14.01,2013-06-28 23:38:00,
2013-06-28 19:39:00,81.3,58.0,29.62,SSW,202,0.0,0.0,45,0.00,,---,0.00,VWS V14.01,2013-06-28 23:39:00,
2013-06-28 19:41:00,81.3,57.3,29.62,SW,225,0.0,0.0,44,0.00,,---,0.00,VWS V14.01,2013-06-28 23:41:00,
2013-06-28 19:43:00,80.7,58.6,29.62,West,270,0.0,0.0,47,0.00,,---,0.00,VWS V14.01,2013-06-28 23:43:00,
2013-06-28 19:44:00,80.7,58.6,29.63,West,270,0.0,0.0,47,0.00,,---,0.00,VWS V14.01,2013-06-28 23:44:00,
2013-06-28 19:45:00,80.7,57.4,29.63,NW,315,0.0,0.0,45,0.00,,---,0.00,VWS V14.01,2013-06-28 23:45:00,
2013-06-28 19:47:00,80.7,57.4,29.62,NW,315,0.0,0.0,45,0.00,,---,0.00,VWS V14.01,2013-06-28 23:47:00,
2013-06-28 19:49:00,80.5,57.2,29.62,NW,315,0.0,0.0,45,0.00,,---,0.00,VWS V14.01,2013-06-28 23:49:00,
2013-06-28 19:50:00,80.7,58.6,29.63,NW,315,0.0,0.0,47,0.00,,---,0.00,VWS V14.01,2013-06-28 23:50:00,
2013-06-28 19:52:00,80.5,59.0,29.63,NW,315,0.0,0.0,48,0.00,,---,0.00,VWS V14.01,2013-06-28 23:52:00,
2013-06-28 19:54:00,80.5,59.0,29.63,NW,315,0.0,0.0,48,0.00,,---,0.00,VWS V14.01,2013-06-28 23:54:00,
2013-06-28 19:55:00,80.2,59.3,29.63,NW,315,0.0,0.0,49,0.00,,---,0.00,VWS V14.01,2013-06-28 23:55:00,
2013-06-28 19:57:00,80.2,59.3,29.63,NW,315,0.0,0.0,49,0.00,,---,0.00,VWS V14.01,2013-06-28 23:57:00,
2013-06-28 19:59:00,80.0,58.6,29.63,NW,315,0.0,0.0,48,0.00,,---,0.00,VWS V14.01,2013-06-28 23:59:00,
2013-06-28 20:00:00,80.0,58.6,29.63,NW,315,0.0,0.0,48,0.00,,---,0.00,VWS V14.01,2013-06-29 00:00:00,
2013-06-28 20:03:00,79.5,58.7,29.63,West,270,0.0,0.0,49,0.00,,---,0.00,VWS V14.01,2013-06-29 00:03:00,
2013-06-28 20:04:00,79.5,59.2,29.63,West,270,0.0,0.0,50,0.00,,---,0.00,VWS V14.01,2013-06-29 00:04:00,
2013-06-28 20:05:00,79.6,58.8,29.63,West,270,0.0,0.0,49,0.00,,---,0.00,VWS V14.01,2013-06-29 00:05:00,
2013-06-28 20:08:00,79.6,58.8,29.63,West,270,0.0,0.0,49,0.00,,---,0.00,VWS V14.01,2013-06-29 00:08:00,
2013-06-28 20:10:00,79.6,58.2,29.63,West,270,0.0,0.0,48,0.00,,---,0.00,VWS V14.01,2013-06-29 00:10:00,
2013-06-28 20:11:00,79.5,57.5,29.63,West,270,0.0,0.0,47,0.00,,---,0.00,VWS V14.01,2013-06-29 00:11:00,
2013-06-28 20:13:00,79.3,57.3,29.63,West,270,0.0,0.0,47,0.00,,---,0.00,VWS V14.01,2013-06-29 00:13:00,
2013-06-28 20:15:00,79.3,57.9,29.63,West,270,0.0,0.0,48,0.00,,---,0.00,VWS V14.01,2013-06-29 00:15:00,
2013-06-28 20:16:00,79.3,59.1,29.63,West,270,0.0,0.0,50,0.00,,---,0.00,VWS V14.01,2013-06-29 00:16:00,
2013-06-28 20:17:00,79.3,59.1,29.63,West,270,0.0,0.0,50,0.00,,---,0.00,VWS V14.01,2013-06-29 00:17:00,
2013-06-28 20:18:00,79.1,58.3,29.63,West,270,0.0,0.0,49,0.00,,---,0.00,VWS V14.01,2013-06-29 00:18:00,
2013-06-28 20:20:00,79.1,58.9,29.63,West,270,0.0,0.0,50,0.00,,---,0.00,VWS V14.01,2013-06-29 00:20:00,
2013-06-28 20:21:00,79.1,58.9,29.63,West,270,0.0,0.0,50,0.00,,---,0.00,VWS V14.01,2013-06-29 00:21:00,
2013-06-28 20:22:00,79.1,58.9,29.63,West,270,0.0,0.0,50,0.00,,---,0.00,VWS V14.01,2013-06-29 00:22:00,
2013-06-28 20:24:00,79.1,58.9,29.63,West,270,0.0,0.0,50,0.00,,---,0.00,VWS V14.01,2013-06-29 00:24:00,
2013-06-28 20:25:00,79.1,58.9,29.63,West,270,0.0,0.0,50,0.00,,---,0.00,VWS V14.01,2013-06-29 00:25:00,
2013-06-28 20:26:00,79.1,57.2,29.63,West,270,0.0,0.0,47,0.00,,---,0.00,VWS V14.01,2013-06-29 00:26:00,
2013-06-28 20:27:00,79.1,57.2,29.63,West,270,0.0,0.0,47,0.00,,---,0.00,VWS V14.01,2013-06-29 00:27:00,
2013-06-28 20:29:00,79.3,57.3,29.63,West,270,0.0,0.0,47,0.00,,---,0.00,VWS V14.01,2013-06-29 00:29:00,
2013-06-28 20:31:00,79.1,57.2,29.63,West,270,0.0,0.0,47,0.00,,---,0.00,VWS V14.01,2013-06-29 00:31:00,
2013-06-28 20:32:00,79.1,57.2,29.63,West,270,0.0,0.0,47,0.00,,---,0.00,VWS V14.01,2013-06-29 00:32:00,
2013-06-28 20:35:00,78.9,57.6,29.63,West,270,0.0,0.0,48,0.00,,---,0.00,VWS V14.01,2013-06-29 00:35:00,
2013-06-28 20:36:00,78.9,57.6,29.63,West,270,0.0,0.0,48,0.00,,---,0.00,VWS V14.01,2013-06-29 00:36:00,
2013-06-28 20:37:00,78.7,56.8,29.63,West,270,0.0,0.0,47,0.00,,---,0.00,VWS V14.01,2013-06-29 00:37:00,
2013-06-28 20:38:00,78.7,56.8,29.63,West,270,0.0,0.0,47,0.00,,---,0.00,VWS V14.01,2013-06-29 00:38:00,
2013-06-28 20:41:00,78.9,56.4,29.63,West,270,0.0,0.0,46,0.00,,---,0.00,VWS V14.01,2013-06-29 00:41:00,
2013-06-28 20:42:00,78.9,56.4,29.63,West,270,0.0,0.0,46,0.00,,---,0.00,VWS V14.01,2013-06-29 00:42:00,
2013-06-28 20:43:00,78.7,56.2,29.63,West,270,0.0,0.0,46,0.00,,---,0.00,VWS V14.01,2013-06-29 00:43:00,
2013-06-28 20:47:00,78.7,55.6,29.63,West,270,0.0,0.0,45,0.00,,---,0.00,VWS V14.01,2013-06-29 00:47:00,
2013-06-28 20:48:00,78.6,54.9,29.63,West,270,0.0,0.0,44,0.00,,---,0.00,VWS V14.01,2013-06-29 00:48:00,
2013-06-28 20:52:00,78.7,55.6,29.63,West,270,0.0,0.0,45,0.00,,---,0.00,VWS V14.01,2013-06-29 00:52:00,
2013-06-28 20:53:00,78.7,55.6,29.63,West,270,0.0,0.0,45,0.00,,---,0.00,VWS V14.01,2013-06-29 00:53:00,
2013-06-28 20:54:00,78.7,55.6,29.63,West,270,0.0,0.0,45,0.00,,---,0.00,VWS V14.01,2013-06-29 00:54:00,
2013-06-28 20:57:00,78.4,55.3,29.63,West,270,0.0,0.0,45,0.00,,---,0.00,VWS V14.01,2013-06-29 00:57:00,
2013-06-28 20:58:00,78.4,55.9,29.63,West,270,0.0,0.0,46,0.00,,---,0.00,VWS V14.01,2013-06-29 00:58:00,
2013-06-28 20:59:00,78.4,55.9,29.63,West,270,0.0,0.0,46,0.00,,---,0.00,VWS V14.01,2013-06-29 00:59:00,
2013-06-28 21:00:00,78.4,55.9,29.63,West,270,0.0,0.0,46,0.00,,---,0.00,VWS V14.01,2013-06-29 01:00:00,
2013-06-28 21:02:00,78.0,56.2,29.63,West,270,0.0,0.0,47,0.00,,---,0.00,VWS V14.01,2013-06-29 01:02:00,
2013-06-28 21:03:00,78.0,56.2,29.63,West,270,0.0,0.0,47,0.00,,---,0.00,VWS V14.01,2013-06-29 01:03:00,
2013-06-28 21:04:00,78.0,56.2,29.63,West,270,0.0,0.0,47,0.00,,---,0.00,VWS V14.01,2013-06-29 01:04:00,
2013-06-28 21:05:00,77.8,56.0,29.63,West,270,0.0,0.0,47,0.00,,---,0.00,VWS V14.01,2013-06-29 01:05:00,
2013-06-28 21:08:00,77.5,56.3,29.63,West,270,0.0,0.0,48,0.00,,---,0.00,VWS V14.01,2013-06-29 01:08:00,
2013-06-28 21:09:00,77.5,56.3,29.63,West,270,0.0,0.0,48,0.00,,---,0.00,VWS V14.01,2013-06-29 01:09:00,
2013-06-28 21:10:00,77.5,56.3,29.64,West,270,0.0,0.0,48,0.00,,---,0.00,VWS V14.01,2013-06-29 01:10:00,
2013-06-28 21:11:00,77.1,56.5,29.64,West,270,0.0,0.0,49,0.00,,---,0.00,VWS V14.01,2013-06-29 01:11:00,
2013-06-28 21:13:00,76.9,56.9,29.64,West,270,0.0,0.0,50,0.00,,---,0.00,VWS V14.01,2013-06-29 01:13:00,
2013-06-28 21:14:00,76.9,56.9,29.64,West,270,0.0,0.0,50,0.00,,---,0.00,VWS V14.01,2013-06-29 01:14:00,
2013-06-28 21:15:00,76.9,56.9,29.64,West,270,0.0,0.0,50,0.00,,---,0.00,VWS V14.01,2013-06-29 01:15:00,
2013-06-28 21:16:00,76.9,56.9,29.64,West,270,0.0,0.0,50,0.00,,---,0.00,VWS V14.01,2013-06-29 01:16:00,
2013-06-28 21:18:00,76.9,56.9,29.64,West,270,0.0,0.0,50,0.00,,---,0.00,VWS V14.01,2013-06-29 01:18:00,
2013-06-28 21:19:00,76.9,56.9,29.64,West,270,0.0,0.0,50,0.00,,---,0.00,VWS V14.01,2013-06-29 01:19:00,
2013-06-28 21:20:00,76.9,56.9,29.63,West,270,0.0,0.0,50,0.00,,---,0.00,VWS V14.01,2013-06-29 01:20:00,
2013-06-28 21:22:00,76.6,57.1,29.63,West,270,0.0,0.0,51,0.00,,---,0.00,VWS V14.01,2013-06-29 01:22:00,
2013-06-28 21:24:00,76.4,57.0,29.63,West,270,0.0,0.0,51,0.00,,---,0.00,VWS V14.01,2013-06-29 01:24:00,
2013-06-28 21:25:00,76.4,57.0,29.63,West,270,0.0,0.0,51,0.00,,---,0.00,VWS V14.01,2013-06-29 01:25:00,
2013-06-28 21:27:00,76.4,57.0,29.63,West,270,0.0,0.0,51,0.00,,---,0.00,VWS V14.01,2013-06-29 01:27:00,
2013-06-28 21:29:00,76.2,57.3,29.64,West,270,0.0,0.0,52,0.00,,---,0.00,VWS V14.01,2013-06-29 01:29:00,
2013-06-28 21:30:00,76.2,57.3,29.64,West,270,0.0,0.0,52,0.00,,---,0.00,VWS V14.01,2013-06-29 01:30:00,
2013-06-28 21:31:00,76.2,57.3,29.64,West,270,0.0,0.0,52,0.00,,---,0.00,VWS V14.01,2013-06-29 01:31:00,
2013-06-28 21:32:00,76.2,57.3,29.64,West,270,0.0,0.0,52,0.00,,---,0.00,VWS V14.01,2013-06-29 01:32:00,
2013-06-28 21:34:00,76.2,57.3,29.64,West,270,0.0,0.0,52,0.00,,---,0.00,VWS V14.01,2013-06-29 01:34:00,
2013-06-28 21:35:00,76.2,57.3,29.64,West,270,0.0,0.0,52,0.00,,---,0.00,VWS V14.01,2013-06-29 01:35:00,
2013-06-28 21:36:00,76.2,57.3,29.64,West,270,0.0,0.0,52,0.00,,---,0.00,VWS V14.01,2013-06-29 01:36:00,
2013-06-28 21:37:00,76.2,57.3,29.64,West,270,0.0,0.0,52,0.00,,---,0.00,VWS V14.01,2013-06-29 01:37:00,
2013-06-28 21:39:00,76.2,57.3,29.64,West,270,0.0,0.0,52,0.00,,---,0.00,VWS V14.01,2013-06-29 01:39:00,
2013-06-28 21:40:00,76.2,57.3,29.64,West,270,0.0,0.0,52,0.00,,---,0.00,VWS V14.01,2013-06-29 01:40:00,
2013-06-28 21:41:00,76.2,57.3,29.64,West,270,0.0,0.0,52,0.00,,---,0.00,VWS V14.01,2013-06-29 01:41:00,
2013-06-28 21:42:00,76.2,57.3,29.64,West,270,0.0,0.0,52,0.00,,---,0.00,VWS V14.01,2013-06-29 01:42:00,
2013-06-28 21:43:00,76.4,57.5,29.64,West,270,0.0,0.0,52,0.00,,---,0.00,VWS V14.01,2013-06-29 01:43:00,
2013-06-28 21:45:00,76.2,57.3,29.64,West,270,0.0,0.0,52,0.00,,---,0.00,VWS V14.01,2013-06-29 01:45:00,
2013-06-28 21:46:00,76.2,57.3,29.64,West,270,0.0,0.0,52,0.00,,---,0.00,VWS V14.01,2013-06-29 01:46:00,
2013-06-28 21:47:00,76.2,57.3,29.64,West,270,0.0,0.0,52,0.00,,---,0.00,VWS V14.01,2013-06-29 01:47:00,
2013-06-28 21:49:00,76.2,57.3,29.64,West,270,0.0,0.0,52,0.00,,---,0.00,VWS V14.01,2013-06-29 01:49:00,
2013-06-28 21:50:00,76.2,57.3,29.64,West,270,0.0,0.0,52,0.00,,---,0.00,VWS V14.01,2013-06-29 01:50:00,
2013-06-28 21:51:00,76.2,57.3,29.65,West,270,0.0,0.0,52,0.00,,---,0.00,VWS V14.01,2013-06-29 01:51:00,
2013-06-28 21:53:00,76.2,57.3,29.64,West,270,0.0,0.0,52,0.00,,---,0.00,VWS V14.01,2013-06-29 01:53:00,
2013-06-28 21:54:00,76.2,57.8,29.64,West,270,0.0,0.0,53,0.00,,---,0.00,VWS V14.01,2013-06-29 01:54:00,
2013-06-28 21:55:00,76.2,57.8,29.64,West,270,0.0,0.0,53,0.00,,---,0.00,VWS V14.01,2013-06-29 01:55:00,
2013-06-28 21:56:00,76.0,57.7,29.65,West,270,0.0,0.0,53,0.00,,---,0.00,VWS V14.01,2013-06-29 01:56:00,
2013-06-28 21:59:00,76.0,57.7,29.65,West,270,0.0,0.0,53,0.00,,---,0.00,VWS V14.01,2013-06-29 01:59:00,
2013-06-28 22:00:00,76.0,57.7,29.65,West,270,0.0,0.0,53,0.00,,---,0.00,VWS V14.01,2013-06-29 02:00:00,
2013-06-28 22:02:00,75.3,58.0,29.65,West,270,0.0,0.0,55,0.00,,---,0.00,VWS V14.01,2013-06-29 02:02:00,
2013-06-28 22:04:00,75.3,58.0,29.64,West,270,0.0,0.0,55,0.00,,---,0.00,VWS V14.01,2013-06-29 02:04:00,
2013-06-28 22:05:00,75.3,58.0,29.64,West,270,0.0,0.0,55,0.00,,---,0.00,VWS V14.01,2013-06-29 02:05:00,
2013-06-28 22:08:00,75.3,58.0,29.64,West,270,0.0,0.0,55,0.00,,---,0.00,VWS V14.01,2013-06-29 02:08:00,
2013-06-28 22:09:00,75.3,58.5,29.64,West,270,0.0,0.0,56,0.00,,---,0.00,VWS V14.01,2013-06-29 02:09:00,
2013-06-28 22:10:00,75.3,58.5,29.64,West,270,0.0,0.0,56,0.00,,---,0.00,VWS V14.01,2013-06-29 02:10:00,
2013-06-28 22:11:00,75.3,58.5,29.64,West,270,0.0,0.0,56,0.00,,---,0.00,VWS V14.01,2013-06-29 02:11:00,
2013-06-28 22:13:00,75.0,58.3,29.64,West,270,0.0,0.0,56,0.00,,---,0.00,VWS V14.01,2013-06-29 02:13:00,
2013-06-28 22:14:00,75.0,58.3,29.64,West,270,0.0,0.0,56,0.00,,---,0.00,VWS V14.01,2013-06-29 02:14:00,
2013-06-28 22:15:00,75.0,58.3,29.64,West,270,0.0,0.0,56,0.00,,---,0.00,VWS V14.01,2013-06-29 02:15:00,
2013-06-28 22:17:00,75.0,58.3,29.64,West,270,0.0,0.0,56,0.00,,---,0.00,VWS V14.01,2013-06-29 02:17:00,
2013-06-28 22:18:00,75.0,58.3,29.64,West,270,0.0,0.0,56,0.00,,---,0.00,VWS V14.01,2013-06-29 02:18:00,
2013-06-28 22:20:00,74.6,57.9,29.64,West,270,0.0,0.0,56,0.00,,---,0.00,VWS V14.01,2013-06-29 02:20:00,
2013-06-28 22:21:00,74.6,58.4,29.64,West,270,0.0,0.0,57,0.00,,---,0.00,VWS V14.01,2013-06-29 02:21:00,
2013-06-28 22:22:00,74.6,58.4,29.64,West,270,0.0,0.0,57,0.00,,---,0.00,VWS V14.01,2013-06-29 02:22:00,
2013-06-28 22:24:00,74.4,58.2,29.64,West,270,0.0,0.0,57,0.00,,---,0.00,VWS V14.01,2013-06-29 02:24:00,
2013-06-28 22:25:00,74.4,58.2,29.64,West,270,0.0,0.0,57,0.00,,---,0.00,VWS V14.01,2013-06-29 02:25:00,
2013-06-28 22:26:00,74.4,58.2,29.64,West,270,0.0,0.0,57,0.00,,---,0.00,VWS V14.01,2013-06-29 02:26:00,
2013-06-28 22:28:00,74.4,58.2,29.64,West,270,0.0,0.0,57,0.00,,---,0.00,VWS V14.01,2013-06-29 02:28:00,
2013-06-28 22:29:00,74.2,58.0,29.64,West,270,0.0,0.0,57,0.00,,---,0.00,VWS V14.01,2013-06-29 02:29:00,
2013-06-28 22:31:00,74.1,58.4,29.64,West,270,0.0,0.0,58,0.00,,---,0.00,VWS V14.01,2013-06-29 02:31:00,
2013-06-28 22:32:00,74.1,58.4,29.64,West,270,0.0,0.0,58,0.00,,---,0.00,VWS V14.01,2013-06-29 02:32:00,
2013-06-28 22:33:00,74.1,58.4,29.65,West,270,0.0,0.0,58,0.00,,---,0.00,VWS V14.01,2013-06-29 02:33:00,
2013-06-28 22:35:00,74.1,58.4,29.65,West,270,0.0,0.0,58,0.00,,---,0.00,VWS V14.01,2013-06-29 02:35:00,
2013-06-28 22:36:00,74.1,59.3,29.65,West,270,0.0,0.0,60,0.00,,---,0.00,VWS V14.01,2013-06-29 02:36:00,
2013-06-28 22:37:00,74.1,59.3,29.64,West,270,0.0,0.0,60,0.00,,---,0.00,VWS V14.01,2013-06-29 02:37:00,
2013-06-28 22:38:00,74.1,59.3,29.64,West,270,0.0,0.0,60,0.00,,---,0.00,VWS V14.01,2013-06-29 02:38:00,
2013-06-28 22:41:00,74.1,59.3,29.64,West,270,0.0,0.0,60,0.00,,---,0.00,VWS V14.01,2013-06-29 02:41:00,
2013-06-28 22:42:00,74.1,59.3,29.64,West,270,0.0,0.0,60,0.00,,---,0.00,VWS V14.01,2013-06-29 02:42:00,
2013-06-28 22:43:00,73.9,59.2,29.64,West,270,0.0,0.0,60,0.00,,---,0.00,VWS V14.01,2013-06-29 02:43:00,
2013-06-28 22:46:00,73.9,60.1,29.64,West,270,0.0,0.0,62,0.00,,---,0.00,VWS V14.01,2013-06-29 02:46:00,
2013-06-28 22:47:00,73.9,60.1,29.64,West,270,0.0,0.0,62,0.00,,---,0.00,VWS V14.01,2013-06-29 02:47:00,
2013-06-28 22:48:00,73.9,60.1,29.64,West,270,0.0,0.0,62,0.00,,---,0.00,VWS V14.01,2013-06-29 02:48:00,
2013-06-28 22:51:00,73.7,59.9,29.64,West,270,0.0,0.0,62,0.00,,---,0.00,VWS V14.01,2013-06-29 02:51:00,
2013-06-28 22:52:00,73.7,59.9,29.64,West,270,0.0,0.0,62,0.00,,---,0.00,VWS V14.01,2013-06-29 02:52:00,
2013-06-28 22:53:00,73.7,59.9,29.64,West,270,0.0,0.0,62,0.00,,---,0.00,VWS V14.01,2013-06-29 02:53:00,
2013-06-28 22:56:00,73.7,59.4,29.64,West,270,0.0,0.0,61,0.00,,---,0.00,VWS V14.01,2013-06-29 02:56:00,
2013-06-28 22:58:00,73.7,59.4,29.64,West,270,0.0,0.0,61,0.00,,---,0.00,VWS V14.01,2013-06-29 02:58:00,
2013-06-28 22:59:00,73.7,59.4,29.64,West,270,0.0,0.0,61,0.00,,---,0.00,VWS V14.01,2013-06-29 02:59:00,
2013-06-28 23:01:00,73.5,59.2,29.64,West,270,0.0,0.0,61,0.00,,---,0.00,VWS V14.01,2013-06-29 03:01:00,
2013-06-28 23:04:00,73.7,59.4,29.64,West,270,0.0,0.0,61,0.00,,---,0.00,VWS V14.01,2013-06-29 03:04:00,
2013-06-28 23:05:00,73.5,59.2,29.64,West,270,0.0,0.0,61,0.00,,---,0.00,VWS V14.01,2013-06-29 03:05:00,
2013-06-28 23:06:00,73.5,59.2,29.64,West,270,0.0,0.0,61,0.00,,---,0.00,VWS V14.01,2013-06-29 03:06:00,
2013-06-28 23:09:00,73.7,59.9,29.64,West,270,0.0,0.0,62,0.00,,---,0.00,VWS V14.01,2013-06-29 03:09:00,
2013-06-28 23:10:00,73.7,59.9,29.64,West,270,0.0,0.0,62,0.00,,---,0.00,VWS V14.01,2013-06-29 03:10:00,
2013-06-28 23:12:00,73.5,59.7,29.64,West,270,0.0,0.0,62,0.00,,---,0.00,VWS V14.01,2013-06-29 03:12:00,
2013-06-28 23:15:00,73.3,59.5,29.64,West,270,0.0,0.0,62,0.00,,---,0.00,VWS V14.01,2013-06-29 03:15:00,
2013-06-28 23:16:00,73.3,59.5,29.64,West,270,0.0,0.0,62,0.00,,---,0.00,VWS V14.01,2013-06-29 03:16:00,
2013-06-28 23:17:00,73.5,59.7,29.64,West,270,0.0,0.0,62,0.00,,---,0.00,VWS V14.01,2013-06-29 03:17:00,
2013-06-28 23:20:00,73.5,60.2,29.64,West,270,0.0,0.0,63,0.00,,---,0.00,VWS V14.01,2013-06-29 03:20:00,
2013-06-28 23:21:00,73.3,60.0,29.64,West,270,0.0,0.0,63,0.00,,---,0.00,VWS V14.01,2013-06-29 03:21:00,
2013-06-28 23:23:00,73.3,60.0,29.64,West,270,0.0,0.0,63,0.00,,---,0.00,VWS V14.01,2013-06-29 03:23:00,
2013-06-28 23:25:00,73.3,60.0,29.64,West,270,0.0,0.0,63,0.00,,---,0.00,VWS V14.01,2013-06-29 03:25:00,
2013-06-28 23:27:00,73.3,60.0,29.64,West,270,0.0,0.0,63,0.00,,---,0.00,VWS V14.01,2013-06-29 03:27:00,
2013-06-28 23:28:00,73.3,60.0,29.64,West,270,0.0,0.0,63,0.00,,---,0.00,VWS V14.01,2013-06-29 03:28:00,
2013-06-28 23:30:00,73.3,60.0,29.64,West,270,0.0,0.0,63,0.00,,---,0.00,VWS V14.01,2013-06-29 03:30:00,
2013-06-28 23:31:00,73.3,60.0,29.64,West,270,0.0,0.0,63,0.00,,---,0.00,VWS V14.01,2013-06-29 03:31:00,
2013-06-28 23:32:00,73.3,60.0,29.64,West,270,0.0,0.0,63,0.00,,---,0.00,VWS V14.01,2013-06-29 03:32:00,
2013-06-28 23:33:00,73.3,60.0,29.63,West,270,0.0,0.0,63,0.00,,---,0.00,VWS V14.01,2013-06-29 03:33:00,
2013-06-28 23:36:00,73.3,60.0,29.64,West,270,0.0,0.0,63,0.00,,---,0.00,VWS V14.01,2013-06-29 03:36:00,
2013-06-28 23:37:00,73.3,60.0,29.64,West,270,0.0,0.0,63,0.00,,---,0.00,VWS V14.01,2013-06-29 03:37:00,
2013-06-28 23:38:00,73.3,60.0,29.64,West,270,0.0,0.0,63,0.00,,---,0.00,VWS V14.01,2013-06-29 03:38:00,
2013-06-28 23:41:00,73.3,60.0,29.64,West,270,0.0,0.0,63,0.00,,---,0.00,VWS V14.01,2013-06-29 03:41:00,
2013-06-28 23:42:00,73.3,60.4,29.64,West,270,0.0,0.0,64,0.00,,---,0.00,VWS V14.01,2013-06-29 03:42:00,
2013-06-28 23:43:00,73.3,60.4,29.64,West,270,0.0,0.0,64,0.00,,---,0.00,VWS V14.01,2013-06-29 03:43:00,
2013-06-28 23:45:00,73.2,60.3,29.63,West,270,0.0,0.0,64,0.00,,---,0.00,VWS V14.01,2013-06-29 03:45:00,
2013-06-28 23:48:00,73.3,60.4,29.63,West,270,0.0,0.0,64,0.00,,---,0.00,VWS V14.01,2013-06-29 03:48:00,
2013-06-28 23:49:00,73.3,60.8,29.63,West,270,0.0,0.0,65,0.00,,---,0.00,VWS V14.01,2013-06-29 03:49:00,
2013-06-28 23:50:00,73.3,60.8,29.63,West,270,0.0,0.0,65,0.00,,---,0.00,VWS V14.01,2013-06-29 03:50:00,
2013-06-28 23:53:00,73.2,60.7,29.63,West,270,0.0,0.0,65,0.00,,---,0.00,VWS V14.01,2013-06-29 03:53:00,
2013-06-28 23:54:00,73.2,60.7,29.63,West,270,0.0,0.0,65,0.00,,---,0.00,VWS V14.01,2013-06-29 03:54:00,
2013-06-28 23:55:00,73.2,61.2,29.63,West,270,0.0,0.0,66,0.00,,---,0.00,VWS V14.01,2013-06-29 03:55:00,
2013-06-28 23:58:00,72.8,60.8,29.63,West,270,0.0,0.0,66,0.00,,---,0.00,VWS V14.01,2013-06-29 03:58:00,
2013-06-28 23:59:00,72.8,60.8,29.63,West,270,0.0,0.0,66,0.00,,---,0.00,VWS V14.01,2013-06-29 03:59:00,